Time,TemperatureF,DewpointF,PressureIn,WindDirection,WindDirectionDegrees,WindSpeedMPH,WindSpeedGustMPH,Humidity,HourlyPrecipIn,Conditions,Clouds,dailyrainin,SoftwareType,DateUTC
2013-01-18 00:00:00,25.5,20.4,30.48,North,3,0.0,0.0,81,0.00,,OVC004,0.00,VWS V14.01,2013-01-18 06:00:00,
2013-01-18 00:02:00,25.5,20.4,30.48,North,3,0.0,0.0,81,0.00,,OVC004,0.00,VWS V14.01,2013-01-18 06:02:00,
2013-01-18 00:04:00,25.3,20.2,30.48,North,3,0.0,0.0,81,0.00,,CLR,0.00,VWS V14.01,2013-01-18 06:04:00,
2013-01-18 00:06:00,25.3,20.6,30.48,North,3,0.0,0.0,82,0.00,,OVC004,0.00,VWS V14.01,2013-01-18 06:06:00,
2013-01-18 00:08:00,25.3,20.6,30.48,North,3,0.0,0.0,82,0.00,,OVC004,0.00,VWS V14.01,2013-01-18 06:08:00,
2013-01-18 00:09:00,25.3,20.6,30.48,North,3,0.0,0.0,82,0.00,,CLR,0.00,VWS V14.01,2013-01-18 06:09:00,
2013-01-18 00:10:00,25.3,20.6,30.48,North,3,0.0,0.0,82,0.00,,OVC004,0.00,VWS V14.01,2013-01-18 06:10:00,
2013-01-18 00:12:00,25.3,20.6,30.48,North,3,0.0,0.0,82,0.00,,OVC004,0.00,VWS V14.01,2013-01-18 06:12:00,
2013-01-18 00:14:00,25.3,20.6,30.48,North,3,0.0,0.0,82,0.00,,CLR,0.00,VWS V14.01,2013-01-18 06:14:00,
2013-01-18 00:16:00,25.3,20.6,30.48,North,3,0.0,0.0,82,0.00,,OVC004,0.00,VWS V14.01,2013-01-18 06:16:00,
2013-01-18 00:18:00,25.3,20.6,30.48,North,3,0.0,0.0,82,0.00,,OVC004,0.00,VWS V14.01,2013-01-18 06:18:00,
2013-01-18 00:19:00,25.3,20.6,30.48,North,3,0.0,0.0,82,0.00,,CLR,0.00,VWS V14.01,2013-01-18 06:19:00,
2013-01-18 00:20:00,25.3,20.6,30.48,North,3,0.0,0.0,82,0.00,,OVC004,0.00,VWS V14.01,2013-01-18 06:20:00,
2013-01-18 00:22:00,25.3,20.6,30.48,North,3,0.0,0.0,82,0.00,,OVC004,0.00,VWS V14.01,2013-01-18 06:22:00,
2013-01-18 00:24:00,25.3,20.6,30.48,North,3,0.0,0.0,82,0.00,,CLR,0.00,VWS V14.01,2013-01-18 06:24:00,
2013-01-18 00:26:00,25.2,20.4,30.48,North,3,0.0,0.0,82,0.00,,OVC004,0.00,VWS V14.01,2013-01-18 06:26:00,
2013-01-18 00:28:00,25.0,20.2,30.48,North,3,0.0,0.0,82,0.00,,OVC004,0.00,VWS V14.01,2013-01-18 06:28:00,
2013-01-18 00:29:00,25.0,20.2,30.48,North,3,0.0,0.0,82,0.00,,CLR,0.00,VWS V14.01,2013-01-18 06:29:00,
2013-01-18 00:30:00,25.0,20.2,30.48,North,3,0.0,0.0,82,0.00,,OVC004,0.00,VWS V14.01,2013-01-18 06:30:00,
2013-01-18 00:32:00,25.0,20.6,30.48,North,3,0.0,0.0,83,0.00,,OVC004,0.00,VWS V14.01,2013-01-18 06:32:00,
2013-01-18 00:34:00,25.0,20.6,30.48,North,3,0.0,0.0,83,0.00,,CLR,0.00,VWS V14.01,2013-01-18 06:34:00,
2013-01-18 00:36:00,25.0,20.6,30.48,North,3,0.0,0.0,83,0.00,,OVC004,0.00,VWS V14.01,2013-01-18 06:36:00,
2013-01-18 00:38:00,24.8,20.4,30.48,North,3,0.0,0.0,83,0.00,,OVC004,0.00,VWS V14.01,2013-01-18 06:38:00,
2013-01-18 00:39:00,24.8,20.4,30.48,North,3,0.0,0.0,83,0.00,,CLR,0.00,VWS V14.01,2013-01-18 06:39:00,
2013-01-18 00:40:00,24.8,20.4,30.48,North,3,0.0,0.0,83,0.00,,OVC004,0.00,VWS V14.01,2013-01-18 06:40:00,
2013-01-18 00:42:00,24.6,20.2,30.48,North,3,0.0,0.0,83,0.00,,OVC004,0.00,VWS V14.01,2013-01-18 06:42:00,
2013-01-18 00:44:00,24.4,20.1,30.48,North,3,0.0,0.0,83,0.00,,CLR,0.00,VWS V14.01,2013-01-18 06:44:00,
2013-01-18 00:46:00,24.4,20.1,30.48,North,3,0.0,0.0,83,0.00,,OVC004,0.00,VWS V14.01,2013-01-18 06:46:00,
2013-01-18 00:48:00,24.4,20.4,30.48,North,3,0.0,0.0,84,0.00,,OVC004,0.00,VWS V14.01,2013-01-18 06:48:00,
2013-01-18 00:49:00,24.4,20.4,30.48,North,3,0.0,0.0,84,0.00,,CLR,0.00,VWS V14.01,2013-01-18 06:49:00,
2013-01-18 00:50:00,24.4,20.4,30.48,North,3,0.0,0.0,84,0.00,,OVC004,0.00,VWS V14.01,2013-01-18 06:50:00,
2013-01-18 00:52:00,24.4,20.4,30.48,North,3,0.0,0.0,84,0.00,,OVC004,0.00,VWS V14.01,2013-01-18 06:52:00,
2013-01-18 00:54:00,24.4,20.4,30.48,North,3,0.0,0.0,84,0.00,,CLR,0.00,VWS V14.01,2013-01-18 06:54:00,
2013-01-18 00:56:00,24.4,20.4,30.48,North,3,0.0,0.0,84,0.00,,OVC004,0.00,VWS V14.01,2013-01-18 06:56:00,
2013-01-18 00:58:00,24.4,20.4,30.48,North,3,0.0,0.0,84,0.00,,OVC004,0.00,VWS V14.01,2013-01-18 06:58:00,
2013-01-18 00:59:00,24.4,20.4,30.48,North,3,0.0,0.0,84,0.00,,CLR,0.00,VWS V14.01,2013-01-18 06:59:00,
2013-01-18 01:00:00,24.4,20.4,30.48,North,3,0.0,0.0,84,0.00,,OVC004,0.00,VWS V14.01,2013-01-18 07:00:00,
2013-01-18 01:02:00,24.3,20.3,30.48,North,3,0.0,0.0,84,0.00,,OVC004,0.00,VWS V14.01,2013-01-18 07:02:00,
2013-01-18 01:04:00,24.3,20.3,30.48,North,3,0.0,0.0,84,0.00,,CLR,0.00,VWS V14.01,2013-01-18 07:04:00,
2013-01-18 01:06:00,24.3,20.3,30.48,North,3,0.0,0.0,84,0.00,,OVC004,0.00,VWS V14.01,2013-01-18 07:06:00,
2013-01-18 01:08:00,24.3,20.6,30.48,North,3,0.0,0.0,86,0.00,,OVC004,0.00,VWS V14.01,2013-01-18 07:08:00,
2013-01-18 01:09:00,24.3,20.6,30.48,North,3,0.0,0.0,86,0.00,,CLR,0.00,VWS V14.01,2013-01-18 07:09:00,
2013-01-18 01:10:00,24.3,20.6,30.48,North,3,0.0,0.0,86,0.00,,OVC004,0.00,VWS V14.01,2013-01-18 07:10:00,
2013-01-18 01:12:00,24.3,20.6,30.48,North,3,0.0,0.0,86,0.00,,OVC004,0.00,VWS V14.01,2013-01-18 07:12:00,
2013-01-18 01:14:00,24.1,20.5,30.48,North,3,0.0,0.0,86,0.00,,CLR,0.00,VWS V14.01,2013-01-18 07:14:00,
2013-01-18 01:16:00,24.1,20.5,30.48,North,3,0.0,0.0,86,0.00,,OVC004,0.00,VWS V14.01,2013-01-18 07:16:00,
2013-01-18 01:18:00,24.1,20.5,30.48,North,3,0.0,0.0,86,0.00,,OVC004,0.00,VWS V14.01,2013-01-18 07:18:00,
2013-01-18 01:19:00,24.1,20.5,30.48,North,3,0.0,0.0,86,0.00,,CLR,0.00,VWS V14.01,2013-01-18 07:19:00,
2013-01-18 01:20:00,24.1,20.5,30.48,North,3,0.0,0.0,86,0.00,,OVC004,0.00,VWS V14.01,2013-01-18 07:20:00,
2013-01-18 01:22:00,24.3,20.6,30.48,North,3,0.0,0.0,86,0.00,,OVC004,0.00,VWS V14.01,2013-01-18 07:22:00,
2013-01-18 01:24:00,24.4,21.2,30.48,North,3,0.0,0.0,87,0.00,,CLR,0.00,VWS V14.01,2013-01-18 07:24:00,
2013-01-18 01:26:00,24.4,21.2,30.48,North,3,0.0,0.0,87,0.00,,OVC004,0.00,VWS V14.01,2013-01-18 07:26:00,
2013-01-18 01:28:00,24.4,21.2,30.48,North,3,0.0,0.0,87,0.00,,OVC004,0.00,VWS V14.01,2013-01-18 07:28:00,
2013-01-18 01:29:00,24.4,21.2,30.48,North,3,0.0,0.0,87,0.00,,CLR,0.00,VWS V14.01,2013-01-18 07:29:00,
2013-01-18 01:30:00,24.4,21.2,30.48,North,3,0.0,0.0,87,0.00,,OVC004,0.00,VWS V14.01,2013-01-18 07:30:00,
2013-01-18 01:32:00,24.4,21.2,30.48,North,3,0.0,0.0,87,0.00,,OVC004,0.00,VWS V14.01,2013-01-18 07:32:00,
2013-01-18 01:34:00,24.4,21.2,30.48,North,3,0.0,0.0,87,0.00,,CLR,0.00,VWS V14.01,2013-01-18 07:34:00,
2013-01-18 01:36:00,24.4,20.8,30.48,North,3,0.0,0.0,86,0.00,,OVC004,0.00,VWS V14.01,2013-01-18 07:36:00,
2013-01-18 01:38:00,24.4,21.2,30.48,North,3,0.0,0.0,87,0.00,,OVC004,0.00,VWS V14.01,2013-01-18 07:38:00,
2013-01-18 01:39:00,24.4,21.2,30.48,North,3,0.0,0.0,87,0.00,,CLR,0.00,VWS V14.01,2013-01-18 07:39:00,
2013-01-18 01:40:00,24.4,21.2,30.48,North,3,0.0,0.0,87,0.00,,OVC004,0.00,VWS V14.01,2013-01-18 07:40:00,
2013-01-18 01:42:00,24.4,21.2,30.48,North,4,0.0,0.0,87,0.00,,OVC004,0.00,VWS V14.01,2013-01-18 07:42:00,
2013-01-18 01:44:00,24.4,21.2,30.48,North,4,0.0,0.0,87,0.00,,OVC004,0.00,VWS V14.01,2013-01-18 07:44:00,
2013-01-18 01:45:00,24.4,21.2,30.48,North,4,0.0,0.0,87,0.00,,CLR,0.00,VWS V14.01,2013-01-18 07:45:00,
2013-01-18 01:46:00,24.4,21.2,30.48,North,4,0.0,0.0,87,0.00,,OVC004,0.00,VWS V14.01,2013-01-18 07:46:00,
2013-01-18 01:48:00,24.4,21.2,30.48,North,4,0.0,0.0,87,0.00,,OVC004,0.00,VWS V14.01,2013-01-18 07:48:00,
2013-01-18 01:50:00,24.4,21.2,30.48,North,4,0.0,0.0,87,0.00,,CLR,0.00,VWS V14.01,2013-01-18 07:50:00,
2013-01-18 01:52:00,24.4,21.2,30.48,North,4,0.0,0.0,87,0.00,,OVC004,0.00,VWS V14.01,2013-01-18 07:52:00,
2013-01-18 01:54:00,24.4,21.2,30.48,North,4,0.0,0.0,87,0.00,,OVC004,0.00,VWS V14.01,2013-01-18 07:54:00,
2013-01-18 01:55:00,24.4,21.2,30.48,North,4,0.0,0.0,87,0.00,,CLR,0.00,VWS V14.01,2013-01-18 07:55:00,
2013-01-18 01:56:00,24.3,21.0,30.48,North,4,0.0,0.0,87,0.00,,OVC004,0.00,VWS V14.01,2013-01-18 07:56:00,
2013-01-18 01:58:00,24.3,21.0,30.48,North,4,0.0,0.0,87,0.00,,OVC004,0.00,VWS V14.01,2013-01-18 07:58:00,
2013-01-18 02:00:00,24.3,21.0,30.48,North,6,0.0,0.0,87,0.00,,CLR,0.00,VWS V14.01,2013-01-18 08:00:00,
2013-01-18 02:02:00,24.3,21.3,30.48,North,6,0.0,0.0,88,0.00,,OVC004,0.00,VWS V14.01,2013-01-18 08:02:00,
2013-01-18 02:04:00,24.3,21.3,30.48,North,7,0.0,0.0,88,0.00,,OVC004,0.00,VWS V14.01,2013-01-18 08:04:00,
2013-01-18 02:05:00,24.3,21.3,30.48,North,7,0.0,0.0,88,0.00,,CLR,0.00,VWS V14.01,2013-01-18 08:05:00,
2013-01-18 02:06:00,24.3,21.3,30.48,North,7,0.0,0.0,88,0.00,,OVC004,0.00,VWS V14.01,2013-01-18 08:06:00,
2013-01-18 02:08:00,24.3,21.3,30.48,North,7,0.0,0.0,88,0.00,,OVC004,0.00,VWS V14.01,2013-01-18 08:08:00,
2013-01-18 02:10:00,24.3,21.3,30.48,North,8,0.0,0.0,88,0.00,,CLR,0.00,VWS V14.01,2013-01-18 08:10:00,
2013-01-18 02:12:00,24.4,21.5,30.48,North,8,0.0,0.0,88,0.00,,OVC004,0.00,VWS V14.01,2013-01-18 08:12:00,
2013-01-18 02:14:00,24.4,21.5,30.48,North,8,0.0,0.0,88,0.00,,OVC004,0.00,VWS V14.01,2013-01-18 08:14:00,
2013-01-18 02:15:00,24.4,21.5,30.48,North,8,0.0,0.0,88,0.00,,CLR,0.00,VWS V14.01,2013-01-18 08:15:00,
2013-01-18 02:16:00,24.4,21.5,30.48,North,10,0.0,0.0,88,0.00,,OVC004,0.00,VWS V14.01,2013-01-18 08:16:00,
2013-01-18 02:18:00,24.4,21.9,30.48,ESE,115,0.0,3.5,90,0.00,,OVC004,0.00,VWS V14.01,2013-01-18 08:18:00,
2013-01-18 02:20:00,24.6,22.0,30.48,ESE,115,0.0,0.0,90,0.00,,CLR,0.00,VWS V14.01,2013-01-18 08:20:00,
2013-01-18 02:22:00,24.6,22.0,30.48,ESE,115,0.0,0.0,90,0.00,,OVC004,0.00,VWS V14.01,2013-01-18 08:22:00,
2013-01-18 02:24:00,24.4,21.5,30.48,ESE,115,0.0,0.0,88,0.00,,OVC004,0.00,VWS V14.01,2013-01-18 08:24:00,
2013-01-18 02:25:00,24.4,21.5,30.48,ESE,115,0.0,0.0,88,0.00,,CLR,0.00,VWS V14.01,2013-01-18 08:25:00,
2013-01-18 02:26:00,24.4,21.5,30.48,ESE,115,0.0,0.0,88,0.00,,OVC004,0.00,VWS V14.01,2013-01-18 08:26:00,
2013-01-18 02:28:00,24.3,21.3,30.48,ESE,115,0.0,0.0,88,0.00,,OVC004,0.00,VWS V14.01,2013-01-18 08:28:00,
2013-01-18 02:30:00,24.3,21.3,30.48,ESE,121,0.0,0.0,88,0.00,,CLR,0.00,VWS V14.01,2013-01-18 08:30:00,
2013-01-18 02:32:00,24.1,21.2,30.48,SSE,155,0.0,3.5,88,0.00,,OVC004,0.00,VWS V14.01,2013-01-18 08:32:00,
2013-01-18 02:34:00,24.1,21.5,30.48,SSE,155,0.0,3.5,90,0.00,,OVC004,0.00,VWS V14.01,2013-01-18 08:34:00,
2013-01-18 02:35:00,24.3,21.7,30.48,SSE,155,0.0,0.0,90,0.00,,CLR,0.00,VWS V14.01,2013-01-18 08:35:00,
2013-01-18 02:36:00,24.3,21.7,30.48,SSE,155,0.0,0.0,90,0.00,,OVC004,0.00,VWS V14.01,2013-01-18 08:36:00,
2013-01-18 02:38:00,24.3,21.7,30.48,SSE,157,0.0,0.0,90,0.00,,OVC004,0.00,VWS V14.01,2013-01-18 08:38:00,
2013-01-18 02:40:00,24.3,21.7,30.48,SSE,157,0.0,0.0,90,0.00,,CLR,0.00,VWS V14.01,2013-01-18 08:40:00,
2013-01-18 02:42:00,24.3,21.7,30.48,SSE,164,0.0,0.0,90,0.00,,OVC004,0.00,VWS V14.01,2013-01-18 08:42:00,
2013-01-18 02:44:00,24.3,21.7,30.48,SSW,203,0.0,0.0,90,0.00,,OVC004,0.00,VWS V14.01,2013-01-18 08:44:00,
2013-01-18 02:45:00,24.3,21.7,30.48,SSW,203,0.0,0.0,90,0.00,,CLR,0.00,VWS V14.01,2013-01-18 08:45:00,
2013-01-18 02:46:00,24.3,21.7,30.48,SSW,203,0.0,0.0,90,0.00,,OVC004,0.00,VWS V14.01,2013-01-18 08:46:00,
2013-01-18 02:48:00,24.3,21.7,30.48,SSW,203,0.0,0.0,90,0.00,,OVC004,0.00,VWS V14.01,2013-01-18 08:48:00,
2013-01-18 02:50:00,24.3,21.7,30.48,SSW,203,0.0,0.0,90,0.00,,CLR,0.00,VWS V14.01,2013-01-18 08:50:00,
2013-01-18 02:52:00,24.3,21.7,30.48,SSW,204,0.0,0.0,90,0.00,,OVC004,0.00,VWS V14.01,2013-01-18 08:52:00,
2013-01-18 02:54:00,24.3,21.7,30.48,SSW,204,0.0,0.0,90,0.00,,OVC004,0.00,VWS V14.01,2013-01-18 08:54:00,
2013-01-18 02:55:00,24.3,21.7,30.48,SSW,203,0.0,0.0,90,0.00,,CLR,0.00,VWS V14.01,2013-01-18 08:55:00,
2013-01-18 02:56:00,24.3,21.7,30.48,SSW,203,0.0,0.0,90,0.00,,OVC004,0.00,VWS V14.01,2013-01-18 08:56:00,
2013-01-18 02:58:00,24.3,21.7,30.48,SSW,203,0.0,0.0,90,0.00,,OVC004,0.00,VWS V14.01,2013-01-18 08:58:00,
2013-01-18 03:00:00,24.3,21.7,30.48,SSW,203,0.0,0.0,90,0.00,,CLR,0.00,VWS V14.01,2013-01-18 09:00:00,
2013-01-18 03:02:00,24.3,22.0,30.48,SSW,203,0.0,0.0,91,0.00,,OVC004,0.00,VWS V14.01,2013-01-18 09:02:00,
2013-01-18 03:04:00,24.3,22.0,30.48,SSW,203,0.0,0.0,91,0.00,,OVC004,0.00,VWS V14.01,2013-01-18 09:04:00,
2013-01-18 03:05:00,24.4,22.2,30.48,SSW,204,0.0,0.0,91,0.00,,CLR,0.00,VWS V14.01,2013-01-18 09:05:00,
2013-01-18 03:06:00,24.4,22.2,30.48,SSW,203,0.0,0.0,91,0.00,,OVC004,0.00,VWS V14.01,2013-01-18 09:06:00,
2013-01-18 03:08:00,24.4,22.2,30.48,SSW,203,0.0,0.0,91,0.00,,OVC004,0.00,VWS V14.01,2013-01-18 09:08:00,
2013-01-18 03:10:00,24.4,22.2,30.48,SSW,203,0.0,0.0,91,0.00,,CLR,0.00,VWS V14.01,2013-01-18 09:10:00,
2013-01-18 03:12:00,24.6,22.4,30.48,SSW,203,0.0,0.0,91,0.00,,OVC004,0.00,VWS V14.01,2013-01-18 09:12:00,
2013-01-18 03:14:00,24.6,22.4,30.48,SSW,203,0.0,0.0,91,0.00,,OVC004,0.00,VWS V14.01,2013-01-18 09:14:00,
2013-01-18 03:15:00,24.6,22.4,30.48,SSW,203,0.0,0.0,91,0.00,,CLR,0.00,VWS V14.01,2013-01-18 09:15:00,
2013-01-18 03:16:00,24.6,22.4,30.48,SSW,203,0.0,0.0,91,0.00,,OVC004,0.00,VWS V14.01,2013-01-18 09:16:00,
2013-01-18 03:18:00,24.4,22.2,30.48,SSW,204,0.0,0.0,91,0.00,,OVC004,0.00,VWS V14.01,2013-01-18 09:18:00,
2013-01-18 03:20:00,24.4,22.2,30.48,SSW,203,0.0,0.0,91,0.00,,CLR,0.00,VWS V14.01,2013-01-18 09:20:00,
2013-01-18 03:22:00,24.4,22.2,30.48,SSW,203,0.0,0.0,91,0.00,,OVC004,0.00,VWS V14.01,2013-01-18 09:22:00,
2013-01-18 03:24:00,24.3,22.0,30.48,SSW,203,0.0,0.0,91,0.00,,OVC004,0.00,VWS V14.01,2013-01-18 09:24:00,
2013-01-18 03:25:00,24.3,22.0,30.48,SSW,203,0.0,0.0,91,0.00,,CLR,0.00,VWS V14.01,2013-01-18 09:25:00,
2013-01-18 03:26:00,24.1,21.9,30.48,SSW,203,0.0,0.0,91,0.00,,OVC004,0.00,VWS V14.01,2013-01-18 09:26:00,
2013-01-18 03:28:00,24.1,21.9,30.48,SSW,203,0.0,0.0,91,0.00,,OVC004,0.00,VWS V14.01,2013-01-18 09:28:00,
2013-01-18 03:30:00,24.1,21.9,30.48,SSW,204,0.0,0.0,91,0.00,,CLR,0.00,VWS V14.01,2013-01-18 09:30:00,
2013-01-18 03:32:00,24.1,21.9,30.48,SSW,203,0.0,0.0,91,0.00,,OVC004,0.00,VWS V14.01,2013-01-18 09:32:00,
2013-01-18 03:34:00,24.1,22.2,30.48,SSW,203,0.0,0.0,92,0.00,,OVC004,0.00,VWS V14.01,2013-01-18 09:34:00,
2013-01-18 03:35:00,24.1,22.2,30.48,SSW,203,0.0,0.0,92,0.00,,CLR,0.00,VWS V14.01,2013-01-18 09:35:00,
2013-01-18 03:36:00,24.1,22.2,30.48,SSW,203,0.0,0.0,92,0.00,,OVC004,0.00,VWS V14.01,2013-01-18 09:36:00,
2013-01-18 03:38:00,24.3,22.4,30.48,SSW,203,0.0,0.0,92,0.00,,OVC004,0.00,VWS V14.01,2013-01-18 09:38:00,
2013-01-18 03:40:00,24.3,22.4,30.48,SSW,203,0.0,0.0,92,0.00,,CLR,0.00,VWS V14.01,2013-01-18 09:40:00,
2013-01-18 03:42:00,24.3,22.4,30.48,SSW,203,0.0,0.0,92,0.00,,OVC004,0.00,VWS V14.01,2013-01-18 09:42:00,
2013-01-18 03:44:00,24.4,22.6,30.48,SSW,203,0.0,0.0,92,0.00,,OVC004,0.00,VWS V14.01,2013-01-18 09:44:00,
2013-01-18 03:45:00,24.4,22.6,30.48,SSW,203,0.0,0.0,92,0.00,,CLR,0.00,VWS V14.01,2013-01-18 09:45:00,
2013-01-18 03:46:00,24.4,22.6,30.48,SSW,203,0.0,0.0,92,0.00,,OVC004,0.00,VWS V14.01,2013-01-18 09:46:00,
2013-01-18 03:48:00,24.4,22.6,30.48,SSW,203,0.0,0.0,92,0.00,,OVC004,0.00,VWS V14.01,2013-01-18 09:48:00,
2013-01-18 03:50:00,24.4,22.6,30.48,SSW,203,0.0,0.0,92,0.00,,CLR,0.00,VWS V14.01,2013-01-18 09:50:00,
2013-01-18 03:52:00,24.4,22.6,30.48,SSW,203,0.0,0.0,92,0.00,,OVC004,0.00,VWS V14.01,2013-01-18 09:52:00,
2013-01-18 03:54:00,24.4,22.6,30.45,SSW,203,0.0,0.0,92,0.00,,OVC004,0.00,VWS V14.01,2013-01-18 09:54:00,
2013-01-18 03:55:00,24.4,22.6,30.45,SSW,203,0.0,0.0,92,0.00,,CLR,0.00,VWS V14.01,2013-01-18 09:55:00,
2013-01-18 03:56:00,24.4,22.6,30.45,SSW,203,0.0,0.0,92,0.00,,OVC004,0.00,VWS V14.01,2013-01-18 09:56:00,
2013-01-18 03:58:00,24.6,23.1,30.45,SSW,203,0.0,0.0,94,0.00,,OVC004,0.00,VWS V14.01,2013-01-18 09:58:00,
2013-01-18 04:00:00,24.6,23.1,30.45,SSW,204,0.0,0.0,94,0.00,,CLR,0.00,VWS V14.01,2013-01-18 10:00:00,
2013-01-18 04:02:00,24.6,23.1,30.45,SSW,204,0.0,0.0,94,0.00,,OVC004,0.00,VWS V14.01,2013-01-18 10:02:00,
2013-01-18 04:04:00,24.8,23.2,30.45,SSW,203,0.0,0.0,94,0.00,,OVC004,0.00,VWS V14.01,2013-01-18 10:04:00,
2013-01-18 04:05:00,24.8,23.2,30.45,SSW,203,0.0,0.0,94,0.00,,CLR,0.00,VWS V14.01,2013-01-18 10:05:00,
2013-01-18 04:06:00,24.8,23.2,30.45,SSW,203,0.0,0.0,94,0.00,,OVC004,0.00,VWS V14.01,2013-01-18 10:06:00,
2013-01-18 04:08:00,24.6,23.1,30.45,SSW,203,0.0,0.0,94,0.00,,OVC004,0.00,VWS V14.01,2013-01-18 10:08:00,
2013-01-18 04:10:00,24.6,23.1,30.45,SSW,203,0.0,0.0,94,0.00,,CLR,0.00,VWS V14.01,2013-01-18 10:10:00,
2013-01-18 04:12:00,24.6,23.1,30.45,SSW,203,0.0,0.0,94,0.00,,OVC004,0.00,VWS V14.01,2013-01-18 10:12:00,
2013-01-18 04:14:00,24.4,22.6,30.45,SSW,203,0.0,0.0,92,0.00,,OVC004,0.00,VWS V14.01,2013-01-18 10:14:00,
2013-01-18 04:15:00,24.4,22.6,30.45,SSW,203,0.0,0.0,92,0.00,,CLR,0.00,VWS V14.01,2013-01-18 10:15:00,
2013-01-18 04:16:00,24.4,22.6,30.45,SSW,203,0.0,0.0,92,0.00,,OVC004,0.00,VWS V14.01,2013-01-18 10:16:00,
2013-01-18 04:18:00,24.3,22.4,30.45,SSW,203,0.0,0.0,92,0.00,,OVC004,0.00,VWS V14.01,2013-01-18 10:18:00,
2013-01-18 04:20:00,23.9,22.0,30.45,SSW,203,0.0,0.0,92,0.00,,CLR,0.00,VWS V14.01,2013-01-18 10:20:00,
2013-01-18 04:22:00,23.9,22.0,30.45,SSW,203,0.0,0.0,92,0.00,,OVC004,0.00,VWS V14.01,2013-01-18 10:22:00,
2013-01-18 04:24:00,23.7,21.8,30.45,SSW,203,0.0,0.0,92,0.00,,OVC004,0.00,VWS V14.01,2013-01-18 10:24:00,
2013-01-18 04:25:00,23.7,21.8,30.45,SSW,203,0.0,0.0,92,0.00,,CLR,0.00,VWS V14.01,2013-01-18 10:25:00,
2013-01-18 04:26:00,23.7,21.8,30.45,SSW,203,0.0,0.0,92,0.00,,OVC004,0.00,VWS V14.01,2013-01-18 10:26:00,
2013-01-18 04:28:00,23.7,22.2,30.45,SSW,203,0.0,0.0,94,0.00,,OVC004,0.00,VWS V14.01,2013-01-18 10:28:00,
2013-01-18 04:30:00,23.9,22.4,30.45,SSW,203,0.0,0.0,94,0.00,,CLR,0.00,VWS V14.01,2013-01-18 10:30:00,
2013-01-18 04:32:00,23.9,22.4,30.45,SSW,203,0.0,0.0,94,0.00,,OVC004,0.00,VWS V14.01,2013-01-18 10:32:00,
2013-01-18 04:34:00,24.1,22.5,30.45,SSW,203,0.0,0.0,94,0.00,,OVC004,0.00,VWS V14.01,2013-01-18 10:34:00,
2013-01-18 04:35:00,24.1,22.5,30.45,SSW,199,0.0,0.0,94,0.00,,CLR,0.00,VWS V14.01,2013-01-18 10:35:00,
2013-01-18 04:36:00,24.1,22.5,30.45,SSW,193,0.0,0.0,94,0.00,,OVC004,0.00,VWS V14.01,2013-01-18 10:36:00,
2013-01-18 04:38:00,24.3,22.7,30.45,SE,124,0.0,0.0,94,0.00,,OVC004,0.00,VWS V14.01,2013-01-18 10:38:00,
2013-01-18 04:40:00,24.3,22.7,30.45,SE,124,3.3,4.1,94,0.00,,CLR,0.00,VWS V14.01,2013-01-18 10:40:00,
2013-01-18 04:42:00,24.4,23.2,30.45,SE,124,2.8,3.5,95,0.00,,OVC004,0.00,VWS V14.01,2013-01-18 10:42:00,
2013-01-18 04:44:00,24.4,23.2,30.45,SE,124,3.3,3.5,95,0.00,,OVC004,0.00,VWS V14.01,2013-01-18 10:44:00,
2013-01-18 04:46:00,24.6,23.4,30.45,SE,124,0.0,3.5,95,0.00,,CLR,0.00,VWS V14.01,2013-01-18 10:46:00,
2013-01-18 04:48:00,24.8,23.6,30.45,SE,124,0.0,4.1,95,0.00,,OVC004,0.00,VWS V14.01,2013-01-18 10:48:00,
2013-01-18 04:50:00,25.0,23.8,30.45,ESE,121,2.8,3.5,95,0.00,,OVC004,0.00,VWS V14.01,2013-01-18 10:50:00,
2013-01-18 04:51:00,25.2,23.9,30.45,ESE,108,0.0,3.5,95,0.00,,CLR,0.00,VWS V14.01,2013-01-18 10:51:00,
2013-01-18 04:52:00,25.2,23.9,30.45,ESE,103,0.0,3.5,95,0.00,,OVC004,0.00,VWS V14.01,2013-01-18 10:52:00,
2013-01-18 04:54:00,25.3,24.1,30.45,ESE,111,3.3,4.1,95,0.00,,OVC004,0.00,VWS V14.01,2013-01-18 10:54:00,
2013-01-18 04:56:00,25.5,24.3,30.45,SE,127,0.0,3.5,95,0.00,,CLR,0.00,VWS V14.01,2013-01-18 10:56:00,
2013-01-18 04:58:00,25.7,24.5,30.45,ESE,121,5.0,5.2,95,0.00,,OVC004,0.00,VWS V14.01,2013-01-18 10:58:00,
2013-01-18 05:00:00,25.7,24.5,30.45,ESE,104,2.8,5.2,95,0.00,,OVC004,0.00,VWS V14.01,2013-01-18 11:00:00,
2013-01-18 05:01:00,25.7,24.5,30.45,ESE,103,3.3,4.1,95,0.00,,CLR,0.00,VWS V14.01,2013-01-18 11:01:00,
2013-01-18 05:02:00,25.9,24.7,30.45,East,88,3.3,4.1,95,0.00,,OVC004,0.00,VWS V14.01,2013-01-18 11:02:00,
2013-01-18 05:04:00,25.9,24.7,30.45,East,99,0.0,4.1,95,0.00,,OVC004,0.00,VWS V14.01,2013-01-18 11:04:00,
2013-01-18 05:06:00,25.9,24.7,30.45,East,95,0.0,3.5,95,0.00,,CLR,0.00,VWS V14.01,2013-01-18 11:06:00,
2013-01-18 05:08:00,26.1,24.8,30.45,SE,129,3.3,4.7,95,0.00,,OVC004,0.00,VWS V14.01,2013-01-18 11:08:00,
2013-01-18 05:10:00,26.1,24.8,30.45,SE,129,0.0,4.7,95,0.00,,OVC004,0.00,VWS V14.01,2013-01-18 11:10:00,
2013-01-18 05:11:00,26.1,24.8,30.45,SE,129,0.0,2.9,95,0.00,,CLR,0.00,VWS V14.01,2013-01-18 11:11:00,
2013-01-18 05:12:00,26.1,24.8,30.45,SE,133,0.0,5.2,95,0.00,,OVC004,0.00,VWS V14.01,2013-01-18 11:12:00,
2013-01-18 05:14:00,26.1,24.8,30.45,SE,129,2.8,4.1,95,0.00,,OVC004,0.00,VWS V14.01,2013-01-18 11:14:00,
2013-01-18 05:16:00,26.1,24.8,30.45,SE,126,3.3,5.2,95,0.00,,CLR,0.00,VWS V14.01,2013-01-18 11:16:00,
2013-01-18 05:18:00,26.1,24.8,30.45,ESE,102,3.9,5.2,95,0.00,,OVC004,0.00,VWS V14.01,2013-01-18 11:18:00,
2013-01-18 05:20:00,25.9,24.7,30.45,East,101,3.3,5.2,95,0.00,,OVC004,0.00,VWS V14.01,2013-01-18 11:20:00,
2013-01-18 05:21:00,25.9,24.7,30.45,East,101,2.8,4.1,95,0.00,,CLR,0.00,VWS V14.01,2013-01-18 11:21:00,
2013-01-18 05:22:00,25.7,24.5,30.45,East,100,0.0,3.5,95,0.00,,OVC004,0.00,VWS V14.01,2013-01-18 11:22:00,
2013-01-18 05:24:00,25.7,24.5,30.45,East,101,0.0,0.0,95,0.00,,OVC004,0.00,VWS V14.01,2013-01-18 11:24:00,
2013-01-18 05:26:00,25.5,24.3,30.45,SE,139,3.9,4.1,95,0.00,,CLR,0.00,VWS V14.01,2013-01-18 11:26:00,
2013-01-18 05:28:00,25.5,24.3,30.45,SE,139,0.0,4.1,95,0.00,,OVC004,0.00,VWS V14.01,2013-01-18 11:28:00,
2013-01-18 05:30:00,25.3,24.1,30.45,SE,139,0.0,0.0,95,0.00,,OVC004,0.00,VWS V14.01,2013-01-18 11:30:00,
2013-01-18 05:31:00,25.5,24.3,30.45,SE,139,0.0,0.0,95,0.00,,CLR,0.00,VWS V14.01,2013-01-18 11:31:00,
2013-01-18 05:32:00,25.5,24.3,30.45,SE,135,0.0,4.7,95,0.00,,OVC004,0.00,VWS V14.01,2013-01-18 11:32:00,
2013-01-18 05:34:00,25.5,24.3,30.45,SE,133,2.8,4.1,95,0.00,,OVC004,0.00,VWS V14.01,2013-01-18 11:34:00,
2013-01-18 05:36:00,25.3,24.1,30.45,SE,124,3.3,4.7,95,0.00,,CLR,0.00,VWS V14.01,2013-01-18 11:36:00,
2013-01-18 05:38:00,25.3,24.1,30.45,SE,125,0.0,4.7,95,0.00,,OVC004,0.00,VWS V14.01,2013-01-18 11:38:00,
2013-01-18 05:40:00,25.3,24.1,30.45,SE,125,0.0,0.0,95,0.00,,OVC004,0.00,VWS V14.01,2013-01-18 11:40:00,
2013-01-18 05:41:00,25.2,23.9,30.45,SE,125,0.0,0.0,95,0.00,,CLR,0.00,VWS V14.01,2013-01-18 11:41:00,
2013-01-18 05:42:00,25.2,23.9,30.45,SE,125,0.0,0.0,95,0.00,,OVC004,0.00,VWS V14.01,2013-01-18 11:42:00,
2013-01-18 05:44:00,25.0,23.8,30.45,SE,125,0.0,0.0,95,0.00,,OVC004,0.00,VWS V14.01,2013-01-18 11:44:00,
2013-01-18 05:46:00,24.8,23.6,30.45,SE,125,0.0,0.0,95,0.00,,CLR,0.00,VWS V14.01,2013-01-18 11:46:00,
2013-01-18 05:48:00,24.6,23.4,30.45,SE,125,0.0,0.0,95,0.00,,OVC004,0.00,VWS V14.01,2013-01-18 11:48:00,
2013-01-18 05:50:00,24.4,23.2,30.45,SE,125,0.0,0.0,95,0.00,,OVC004,0.00,VWS V14.01,2013-01-18 11:50:00,
2013-01-18 05:51:00,24.3,23.0,30.45,SE,125,0.0,0.0,95,0.00,,CLR,0.00,VWS V14.01,2013-01-18 11:51:00,
2013-01-18 05:52:00,24.3,23.0,30.45,SE,129,3.9,4.1,95,0.00,,OVC004,0.00,VWS V14.01,2013-01-18 11:52:00,
2013-01-18 05:54:00,24.3,23.0,30.45,SE,129,3.3,4.1,95,0.00,,OVC004,0.00,VWS V14.01,2013-01-18 11:54:00,
2013-01-18 05:56:00,24.3,23.0,30.45,SE,129,0.0,2.9,95,0.00,,CLR,0.00,VWS V14.01,2013-01-18 11:56:00,
2013-01-18 05:58:00,24.3,23.4,30.45,SE,130,0.0,0.0,96,0.00,,OVC004,0.00,VWS V14.01,2013-01-18 11:58:00,
2013-01-18 06:00:00,24.3,23.4,30.45,SE,130,0.0,0.0,96,0.00,,OVC004,0.00,VWS V14.01,2013-01-18 12:00:00,
2013-01-18 06:01:00,24.1,22.9,30.45,SE,130,0.0,0.0,95,0.00,,CLR,0.00,VWS V14.01,2013-01-18 12:01:00,
2013-01-18 06:02:00,24.1,22.9,30.45,SE,130,0.0,0.0,95,0.00,,OVC004,0.00,VWS V14.01,2013-01-18 12:02:00,
2013-01-18 06:04:00,23.9,22.7,30.45,SE,130,0.0,0.0,95,0.00,,OVC004,0.00,VWS V14.01,2013-01-18 12:04:00,
2013-01-18 06:06:00,23.9,22.7,30.45,SE,130,0.0,0.0,95,0.00,,CLR,0.00,VWS V14.01,2013-01-18 12:06:00,
2013-01-18 06:08:00,23.7,22.5,30.45,SE,130,0.0,0.0,95,0.00,,OVC004,0.00,VWS V14.01,2013-01-18 12:08:00,
2013-01-18 06:10:00,23.5,22.3,30.42,SE,130,0.0,0.0,95,0.00,,OVC004,0.00,VWS V14.01,2013-01-18 12:10:00,
2013-01-18 06:11:00,23.5,22.3,30.42,SE,130,0.0,0.0,95,0.00,,CLR,0.00,VWS V14.01,2013-01-18 12:11:00,
2013-01-18 06:12:00,23.5,22.3,30.42,SE,130,0.0,0.0,95,0.00,,OVC004,0.00,VWS V14.01,2013-01-18 12:12:00,
2013-01-18 06:14:00,23.5,22.3,30.42,SE,130,0.0,0.0,95,0.00,,OVC004,0.00,VWS V14.01,2013-01-18 12:14:00,
2013-01-18 06:16:00,23.5,22.3,30.42,SE,130,0.0,0.0,95,0.00,,CLR,0.00,VWS V14.01,2013-01-18 12:16:00,
2013-01-18 06:18:00,23.5,22.7,30.42,SE,130,0.0,0.0,96,0.00,,OVC004,0.00,VWS V14.01,2013-01-18 12:18:00,
2013-01-18 06:20:00,23.5,22.7,30.42,SE,130,0.0,0.0,96,0.00,,OVC004,0.00,VWS V14.01,2013-01-18 12:20:00,
2013-01-18 06:21:00,23.5,22.7,30.42,SE,129,0.0,0.0,96,0.00,,CLR,0.00,VWS V14.01,2013-01-18 12:21:00,
2013-01-18 06:22:00,23.5,22.7,30.42,SE,129,0.0,0.0,96,0.00,,OVC004,0.00,VWS V14.01,2013-01-18 12:22:00,
2013-01-18 06:24:00,23.5,22.7,30.45,SE,129,0.0,0.0,96,0.00,,OVC004,0.00,VWS V14.01,2013-01-18 12:24:00,
2013-01-18 06:26:00,23.4,22.5,30.45,SE,130,0.0,0.0,96,0.00,,CLR,0.00,VWS V14.01,2013-01-18 12:26:00,
2013-01-18 06:28:00,23.4,22.5,30.45,SE,129,0.0,0.0,96,0.00,,OVC004,0.00,VWS V14.01,2013-01-18 12:28:00,
2013-01-18 06:30:00,23.4,22.5,30.45,SE,129,0.0,0.0,96,0.00,,OVC004,0.00,VWS V14.01,2013-01-18 12:30:00,
2013-01-18 06:31:00,23.4,22.5,30.45,SE,129,0.0,0.0,96,0.00,,CLR,0.00,VWS V14.01,2013-01-18 12:31:00,
2013-01-18 06:32:00,23.4,22.5,30.45,SE,129,0.0,0.0,96,0.00,,OVC004,0.00,VWS V14.01,2013-01-18 12:32:00,
2013-01-18 06:34:00,23.4,22.5,30.45,SE,129,0.0,0.0,96,0.00,,OVC004,0.00,VWS V14.01,2013-01-18 12:34:00,
2013-01-18 06:36:00,23.2,22.3,30.45,SE,133,0.0,3.5,96,0.00,,CLR,0.00,VWS V14.01,2013-01-18 12:36:00,
2013-01-18 06:38:00,23.2,22.3,30.45,SE,133,0.0,3.5,96,0.00,,OVC004,0.00,VWS V14.01,2013-01-18 12:38:00,
2013-01-18 06:40:00,23.2,22.3,30.42,SE,132,0.0,0.0,96,0.00,,OVC004,0.00,VWS V14.01,2013-01-18 12:40:00,
2013-01-18 06:42:00,23.4,22.5,30.42,ESE,104,3.3,3.5,96,0.00,,CLR,0.00,VWS V14.01,2013-01-18 12:42:00,
2013-01-18 06:44:00,23.5,23.0,30.42,East,98,0.0,3.5,98,0.00,,OVC004,0.00,VWS V14.01,2013-01-18 12:44:00,
2013-01-18 06:46:00,23.7,23.2,30.42,East,97,0.0,3.5,98,0.00,,OVC004,0.00,VWS V14.01,2013-01-18 12:46:00,
2013-01-18 06:47:00,23.7,23.2,30.42,East,97,0.0,3.5,98,0.00,,CLR,0.00,VWS V14.01,2013-01-18 12:47:00,
2013-01-18 06:48:00,23.9,23.3,30.42,East,97,0.0,0.0,98,0.00,,OVC004,0.00,VWS V14.01,2013-01-18 12:48:00,
2013-01-18 06:50:00,24.1,23.5,30.42,East,97,0.0,0.0,98,0.00,,OVC004,0.00,VWS V14.01,2013-01-18 12:50:00,
2013-01-18 06:52:00,24.1,23.5,30.42,East,97,0.0,0.0,98,0.00,,CLR,0.00,VWS V14.01,2013-01-18 12:52:00,
2013-01-18 06:54:00,24.3,23.7,30.42,East,98,0.0,0.0,98,0.00,,OVC004,0.00,VWS V14.01,2013-01-18 12:54:00,
2013-01-18 06:56:00,24.3,23.7,30.42,East,98,0.0,0.0,98,0.00,,OVC004,0.00,VWS V14.01,2013-01-18 12:56:00,
2013-01-18 06:57:00,24.3,23.7,30.42,East,97,0.0,0.0,98,0.00,,CLR,0.00,VWS V14.01,2013-01-18 12:57:00,
2013-01-18 06:58:00,24.1,23.5,30.42,East,97,0.0,0.0,98,0.00,,OVC004,0.00,VWS V14.01,2013-01-18 12:58:00,
2013-01-18 07:00:00,23.9,23.0,30.42,East,98,0.0,0.0,96,0.00,,OVC004,0.00,VWS V14.01,2013-01-18 13:00:00,
2013-01-18 07:02:00,23.7,22.8,30.42,East,98,0.0,0.0,96,0.00,,CLR,0.00,VWS V14.01,2013-01-18 13:02:00,
2013-01-18 07:04:00,23.7,22.8,30.42,East,97,0.0,0.0,96,0.00,,OVC004,0.00,VWS V14.01,2013-01-18 13:04:00,
2013-01-18 07:06:00,23.5,22.7,30.42,East,98,0.0,0.0,96,0.00,,OVC004,0.00,VWS V14.01,2013-01-18 13:06:00,
2013-01-18 07:07:00,23.5,22.7,30.42,East,98,0.0,0.0,96,0.00,,CLR,0.00,VWS V14.01,2013-01-18 13:07:00,
2013-01-18 07:08:00,23.7,22.8,30.42,East,99,0.0,0.0,96,0.00,,OVC004,0.00,VWS V14.01,2013-01-18 13:08:00,
2013-01-18 07:10:00,23.7,23.2,30.42,East,99,0.0,2.9,98,0.00,,OVC004,0.00,VWS V14.01,2013-01-18 13:10:00,
2013-01-18 07:12:00,23.5,22.7,30.42,East,99,0.0,0.0,96,0.00,,CLR,0.00,VWS V14.01,2013-01-18 13:12:00,
2013-01-18 07:14:00,23.5,23.0,30.42,East,100,0.0,0.0,98,0.00,,OVC004,0.00,VWS V14.01,2013-01-18 13:14:00,
2013-01-18 07:16:00,23.5,23.0,30.42,East,99,0.0,0.0,98,0.00,,OVC004,0.00,VWS V14.01,2013-01-18 13:16:00,
2013-01-18 07:17:00,23.5,23.0,30.42,East,99,0.0,0.0,98,0.00,,CLR,0.00,VWS V14.01,2013-01-18 13:17:00,
2013-01-18 07:18:00,23.5,23.0,30.42,East,99,0.0,0.0,98,0.00,,OVC004,0.00,VWS V14.01,2013-01-18 13:18:00,
2013-01-18 07:20:00,23.5,23.0,30.42,ESE,102,0.0,0.0,98,0.00,,OVC004,0.00,VWS V14.01,2013-01-18 13:20:00,
2013-01-18 07:22:00,23.5,23.0,30.42,ESE,113,0.0,3.5,98,0.00,,CLR,0.00,VWS V14.01,2013-01-18 13:22:00,
2013-01-18 07:24:00,23.5,23.0,30.42,ESE,113,0.0,0.0,98,0.00,,OVC004,0.00,VWS V14.01,2013-01-18 13:24:00,
2013-01-18 07:26:00,23.5,23.0,30.42,ESE,114,0.0,3.5,98,0.00,,OVC004,0.00,VWS V14.01,2013-01-18 13:26:00,
2013-01-18 07:27:00,23.5,23.0,30.42,ESE,115,0.0,3.5,98,0.00,,CLR,0.00,VWS V14.01,2013-01-18 13:27:00,
2013-01-18 07:28:00,23.5,23.0,30.42,ESE,115,0.0,0.0,98,0.00,,OVC004,0.00,VWS V14.01,2013-01-18 13:28:00,
2013-01-18 07:30:00,23.5,23.0,30.42,ESE,115,0.0,0.0,98,0.00,,OVC004,0.00,VWS V14.01,2013-01-18 13:30:00,
2013-01-18 07:32:00,23.5,23.0,30.42,ESE,114,0.0,0.0,98,0.00,,CLR,0.00,VWS V14.01,2013-01-18 13:32:00,
2013-01-18 07:34:00,23.5,23.0,30.42,ESE,113,0.0,0.0,98,0.00,,OVC004,0.00,VWS V14.01,2013-01-18 13:34:00,
2013-01-18 07:36:00,23.5,23.0,30.42,ESE,115,0.0,0.0,98,0.00,,OVC004,0.00,VWS V14.01,2013-01-18 13:36:00,
2013-01-18 07:37:00,23.5,23.0,30.42,ESE,115,0.0,0.0,98,0.00,,CLR,0.00,VWS V14.01,2013-01-18 13:37:00,
2013-01-18 07:38:00,23.5,23.0,30.42,ESE,115,0.0,0.0,98,0.00,,OVC004,0.00,VWS V14.01,2013-01-18 13:38:00,
2013-01-18 07:40:00,23.5,23.0,30.42,ESE,123,0.0,0.0,98,0.00,,OVC004,0.00,VWS V14.01,2013-01-18 13:40:00,
2013-01-18 07:42:00,23.5,23.0,30.42,SE,127,0.0,0.0,98,0.00,,CLR,0.00,VWS V14.01,2013-01-18 13:42:00,
2013-01-18 07:44:00,23.7,23.2,30.42,SE,128,0.0,0.0,98,0.00,,OVC004,0.00,VWS V14.01,2013-01-18 13:44:00,
2013-01-18 07:46:00,23.7,23.2,30.42,SE,126,0.0,0.0,98,0.00,,OVC004,0.00,VWS V14.01,2013-01-18 13:46:00,
2013-01-18 07:47:00,23.7,23.2,30.42,SE,127,0.0,0.0,98,0.00,,CLR,0.00,VWS V14.01,2013-01-18 13:47:00,
2013-01-18 07:48:00,23.7,23.2,30.42,SE,128,0.0,0.0,98,0.00,,OVC004,0.00,VWS V14.01,2013-01-18 13:48:00,
2013-01-18 07:50:00,23.7,23.2,30.42,SE,126,0.0,0.0,98,0.00,,OVC004,0.00,VWS V14.01,2013-01-18 13:50:00,
2013-01-18 07:52:00,24.1,23.8,30.42,SSE,152,3.3,3.5,99,0.00,,CLR,0.00,VWS V14.01,2013-01-18 13:52:00,
2013-01-18 07:54:00,24.3,24.0,30.42,SSW,199,3.3,4.1,99,0.00,,OVC004,0.00,VWS V14.01,2013-01-18 13:54:00,
2013-01-18 07:56:00,24.4,24.2,30.42,SSW,199,2.8,4.1,99,0.00,,OVC004,0.00,VWS V14.01,2013-01-18 13:56:00,
2013-01-18 07:57:00,24.6,24.4,30.42,SSW,198,0.0,3.5,99,0.00,,CLR,0.00,VWS V14.01,2013-01-18 13:57:00,
2013-01-18 07:58:00,24.8,24.6,30.42,SSW,198,0.0,3.5,99,0.00,,OVC004,0.00,VWS V14.01,2013-01-18 13:58:00,
2013-01-18 08:00:00,25.2,24.9,30.42,SSW,199,3.3,3.5,99,0.00,,OVC004,0.00,VWS V14.01,2013-01-18 14:00:00,
2013-01-18 08:02:00,25.7,25.7,30.42,SSE,148,3.9,5.2,100,0.00,,CLR,0.00,VWS V14.01,2013-01-18 14:02:00,
2013-01-18 08:04:00,26.1,26.1,30.42,SSW,194,3.9,5.2,100,0.00,,OVC004,0.00,VWS V14.01,2013-01-18 14:04:00,
2013-01-18 08:06:00,26.8,26.8,30.42,SSE,157,3.9,6.4,100,0.00,,OVC004,0.00,VWS V14.01,2013-01-18 14:06:00,
2013-01-18 08:07:00,27.1,27.1,30.42,SSE,156,2.8,4.7,100,0.00,,CLR,0.00,VWS V14.01,2013-01-18 14:07:00,
2013-01-18 08:08:00,27.1,27.1,30.42,SSE,165,3.9,4.1,100,0.00,,OVC004,0.00,VWS V14.01,2013-01-18 14:08:00,
2013-01-18 08:10:00,27.7,27.7,30.42,SSE,166,3.9,4.1,100,0.00,,OVC004,0.00,VWS V14.01,2013-01-18 14:10:00,
2013-01-18 08:12:00,28.0,28.0,30.42,South,180,3.3,5.2,100,0.00,,CLR,0.00,VWS V14.01,2013-01-18 14:12:00,
2013-01-18 08:14:00,28.4,28.4,30.42,South,189,4.4,6.4,100,0.00,,OVC004,0.00,VWS V14.01,2013-01-18 14:14:00,
2013-01-18 08:16:00,28.8,28.8,30.42,South,188,4.4,4.7,100,0.00,,OVC004,0.00,VWS V14.01,2013-01-18 14:16:00,
2013-01-18 08:17:00,29.1,29.1,30.42,SSE,158,0.0,5.2,100,0.00,,CLR,0.00,VWS V14.01,2013-01-18 14:17:00,
2013-01-18 08:18:00,29.1,29.1,30.42,SSE,158,0.0,5.2,100,0.00,,OVC004,0.00,VWS V14.01,2013-01-18 14:18:00,
2013-01-18 08:20:00,29.5,29.5,30.42,SE,140,6.1,6.4,100,0.00,,OVC004,0.00,VWS V14.01,2013-01-18 14:20:00,
2013-01-18 08:22:00,30.0,30.0,30.42,South,179,4.4,4.7,100,0.00,,CLR,0.00,VWS V14.01,2013-01-18 14:22:00,
2013-01-18 08:24:00,30.2,30.2,30.42,South,173,0.0,5.2,100,0.00,,OVC004,0.00,VWS V14.01,2013-01-18 14:24:00,
2013-01-18 08:26:00,30.4,30.4,30.42,SSE,168,3.9,4.7,100,0.00,,OVC004,0.00,VWS V14.01,2013-01-18 14:26:00,
2013-01-18 08:28:00,30.7,30.7,30.42,SSW,207,0.0,4.7,100,0.00,,CLR,0.00,VWS V14.01,2013-01-18 14:28:00,
2013-01-18 08:30:00,31.1,31.1,30.42,South,184,3.9,5.2,100,0.00,,OVC004,0.00,VWS V14.01,2013-01-18 14:30:00,
2013-01-18 08:32:00,31.3,31.3,30.42,SSW,193,3.3,4.7,100,0.00,,OVC004,0.00,VWS V14.01,2013-01-18 14:32:00,
2013-01-18 08:33:00,31.5,31.5,30.42,SSW,193,2.8,4.1,100,0.00,,CLR,0.00,VWS V14.01,2013-01-18 14:33:00,
2013-01-18 08:34:00,31.6,31.6,30.42,South,171,3.3,5.2,100,0.00,,OVC004,0.00,VWS V14.01,2013-01-18 14:34:00,
2013-01-18 08:36:00,31.8,31.8,30.42,South,173,3.9,5.2,100,0.00,,OVC004,0.00,VWS V14.01,2013-01-18 14:36:00,
2013-01-18 08:38:00,32.2,32.2,30.42,SW,217,3.9,6.4,100,0.00,,CLR,0.00,VWS V14.01,2013-01-18 14:38:00,
2013-01-18 08:40:00,32.5,32.5,30.42,South,180,2.8,6.4,100,0.00,,OVC004,0.00,VWS V14.01,2013-01-18 14:40:00,
2013-01-18 08:42:00,32.7,32.7,30.42,SSE,162,6.1,8.1,100,0.00,,OVC004,0.00,VWS V14.01,2013-01-18 14:42:00,
2013-01-18 08:43:00,32.7,32.7,30.42,SSW,193,6.1,8.1,100,0.00,,CLR,0.00,VWS V14.01,2013-01-18 14:43:00,
2013-01-18 08:44:00,32.9,32.9,30.42,SSE,167,3.9,7.0,100,0.00,,OVC004,0.00,VWS V14.01,2013-01-18 14:44:00,
2013-01-18 08:46:00,33.1,33.1,30.42,SSE,160,9.4,9.9,100,0.00,,OVC004,0.00,VWS V14.01,2013-01-18 14:46:00,
2013-01-18 08:48:00,33.3,33.3,30.42,SW,215,6.7,8.1,100,0.00,,CLR,0.00,VWS V14.01,2013-01-18 14:48:00,
2013-01-18 08:50:00,33.4,33.4,30.42,SE,133,6.7,7.0,100,0.00,,OVC004,0.00,VWS V14.01,2013-01-18 14:50:00,
2013-01-18 08:52:00,33.4,33.2,30.42,SSW,195,7.2,8.1,99,0.00,,OVC004,0.00,VWS V14.01,2013-01-18 14:52:00,
2013-01-18 08:53:00,33.6,33.0,30.42,South,178,7.2,8.7,98,0.00,,CLR,0.00,VWS V14.01,2013-01-18 14:53:00,
2013-01-18 08:54:00,33.6,32.3,30.42,South,179,3.3,8.7,95,0.00,,OVC004,0.00,VWS V14.01,2013-01-18 14:54:00,
2013-01-18 08:56:00,33.8,32.2,30.42,South,171,6.1,7.6,94,0.00,,OVC004,0.00,VWS V14.01,2013-01-18 14:56:00,
2013-01-18 08:58:00,34.0,32.0,30.42,SW,219,3.9,7.0,92,0.00,,CLR,0.00,VWS V14.01,2013-01-18 14:58:00,
2013-01-18 09:00:00,34.2,32.2,30.42,SSE,166,3.9,8.1,92,0.00,,OVC004,0.00,VWS V14.01,2013-01-18 15:00:00,
2013-01-18 09:02:00,34.3,32.0,30.42,SSW,199,7.2,8.1,91,0.00,,OVC004,0.00,VWS V14.01,2013-01-18 15:02:00,
2013-01-18 09:03:00,34.5,31.5,30.42,SW,215,5.0,8.1,88,0.00,,CLR,0.00,VWS V14.01,2013-01-18 15:03:00,
2013-01-18 09:04:00,34.5,31.1,30.42,SSW,203,4.4,7.6,87,0.00,,OVC004,0.00,VWS V14.01,2013-01-18 15:04:00,
2013-01-18 09:06:00,34.7,30.9,30.42,South,178,7.2,8.1,86,0.00,,OVC004,0.00,VWS V14.01,2013-01-18 15:06:00,
2013-01-18 09:08:00,34.9,29.9,30.42,South,181,7.8,8.1,82,0.00,,CLR,0.00,VWS V14.01,2013-01-18 15:08:00,
2013-01-18 09:10:00,35.1,29.7,30.42,SW,234,6.7,8.1,81,0.00,,OVC004,0.00,VWS V14.01,2013-01-18 15:10:00,
2013-01-18 09:12:00,35.4,29.6,30.42,South,185,6.7,7.6,79,0.00,,OVC004,0.00,VWS V14.01,2013-01-18 15:12:00,
2013-01-18 09:13:00,35.6,29.8,30.42,SE,136,8.9,9.3,79,0.00,,CLR,0.00,VWS V14.01,2013-01-18 15:13:00,
2013-01-18 09:14:00,35.6,29.8,30.42,SSW,206,3.3,9.3,79,0.00,,OVC004,0.00,VWS V14.01,2013-01-18 15:14:00,
2013-01-18 09:16:00,36.0,29.7,30.42,SSW,209,6.7,7.6,78,0.00,,OVC004,0.00,VWS V14.01,2013-01-18 15:16:00,
2013-01-18 09:18:00,36.3,30.1,30.42,SW,226,6.7,7.6,78,0.00,,CLR,0.00,VWS V14.01,2013-01-18 15:18:00,
2013-01-18 09:20:00,36.5,29.9,30.42,SSW,203,6.1,7.6,77,0.00,,OVC004,0.00,VWS V14.01,2013-01-18 15:20:00,
2013-01-18 09:22:00,36.9,30.2,30.42,SSW,205,7.8,11.3,77,0.00,,OVC004,0.00,VWS V14.01,2013-01-18 15:22:00,
2013-01-18 09:23:00,36.9,29.8,30.42,SSW,211,6.7,11.3,75,0.00,,CLR,0.00,VWS V14.01,2013-01-18 15:23:00,
2013-01-18 09:24:00,37.0,29.9,30.42,South,190,8.3,9.3,75,0.00,,OVC004,0.00,VWS V14.01,2013-01-18 15:24:00,
2013-01-18 09:26:00,37.2,29.7,30.42,SW,220,3.9,7.6,74,0.00,,OVC004,0.00,VWS V14.01,2013-01-18 15:26:00,
2013-01-18 09:28:00,37.4,29.9,30.42,SW,222,6.1,7.0,74,0.00,,CLR,0.00,VWS V14.01,2013-01-18 15:28:00,
2013-01-18 09:30:00,37.6,29.1,30.42,SSW,194,4.4,9.9,71,0.00,,OVC004,0.00,VWS V14.01,2013-01-18 15:30:00,
2013-01-18 09:32:00,37.8,29.3,30.42,SE,138,4.4,8.1,71,0.00,,OVC004,0.00,VWS V14.01,2013-01-18 15:32:00,
2013-01-18 09:33:00,37.9,29.5,30.42,SE,143,7.8,8.1,71,0.00,,CLR,0.00,VWS V14.01,2013-01-18 15:33:00,
2013-01-18 09:34:00,38.1,29.7,30.42,SSW,201,6.7,8.1,71,0.00,,OVC004,0.00,VWS V14.01,2013-01-18 15:34:00,
2013-01-18 09:36:00,38.3,29.8,30.42,SSW,209,4.4,8.1,71,0.00,,OVC004,0.00,VWS V14.01,2013-01-18 15:36:00,
2013-01-18 09:38:00,38.7,29.7,30.42,SSW,194,5.0,9.3,70,0.00,,CLR,0.00,VWS V14.01,2013-01-18 15:38:00,
2013-01-18 09:40:00,38.8,29.4,30.42,SSW,195,7.8,8.1,69,0.00,,OVC004,0.00,VWS V14.01,2013-01-18 15:40:00,
2013-01-18 09:42:00,39.0,29.6,30.42,South,182,5.0,8.1,69,0.00,,OVC004,0.00,VWS V14.01,2013-01-18 15:42:00,
2013-01-18 09:43:00,39.2,29.8,30.42,SSW,208,4.4,7.6,69,0.00,,CLR,0.00,VWS V14.01,2013-01-18 15:43:00,
2013-01-18 09:44:00,39.4,29.5,30.42,SSW,200,8.3,8.7,67,0.00,,OVC004,0.00,VWS V14.01,2013-01-18 15:44:00,
2013-01-18 09:46:00,39.6,29.6,30.42,SW,221,9.4,9.9,67,0.00,,OVC004,0.00,VWS V14.01,2013-01-18 15:46:00,
2013-01-18 09:48:00,39.9,30.0,30.42,SW,224,7.2,9.3,67,0.00,,CLR,0.00,VWS V14.01,2013-01-18 15:48:00,
2013-01-18 09:50:00,39.9,29.0,30.42,SSW,202,10.0,11.3,65,0.00,,OVC004,0.00,VWS V14.01,2013-01-18 15:50:00,
2013-01-18 09:52:00,40.3,29.4,30.42,South,173,4.4,11.3,65,0.00,,OVC004,0.00,VWS V14.01,2013-01-18 15:52:00,
2013-01-18 09:53:00,40.5,29.5,30.42,SSW,209,7.8,8.1,65,0.00,,CLR,0.00,VWS V14.01,2013-01-18 15:53:00,
2013-01-18 09:54:00,40.5,29.5,30.45,South,181,9.4,9.9,65,0.00,,OVC004,0.00,VWS V14.01,2013-01-18 15:54:00,
2013-01-18 09:56:00,40.8,29.4,30.45,South,170,9.4,13.1,63,0.00,,OVC004,0.00,VWS V14.01,2013-01-18 15:56:00,
2013-01-18 09:58:00,41.0,29.0,30.45,South,169,10.8,13.7,62,0.00,,CLR,0.00,VWS V14.01,2013-01-18 15:58:00,
2013-01-18 10:00:00,41.2,29.2,30.45,South,172,6.7,11.3,62,0.00,,OVC004,0.00,VWS V14.01,2013-01-18 16:00:00,
2013-01-18 10:02:00,41.5,30.0,30.45,SSW,212,6.7,10.5,63,0.00,,OVC004,0.00,VWS V14.01,2013-01-18 16:02:00,
2013-01-18 10:03:00,41.7,29.2,30.45,SW,230,10.3,11.3,61,0.00,,CLR,0.00,VWS V14.01,2013-01-18 16:03:00,
2013-01-18 10:04:00,41.7,29.2,30.45,SSW,212,6.7,11.3,61,0.00,,OVC004,0.00,VWS V14.01,2013-01-18 16:04:00,
2013-01-18 10:06:00,42.1,29.5,30.45,SSW,205,12.5,13.1,61,0.00,,OVC004,0.00,VWS V14.01,2013-01-18 16:06:00,
2013-01-18 10:08:00,42.3,28.6,30.45,South,186,13.6,16.0,58,0.00,,CLR,0.00,VWS V14.01,2013-01-18 16:08:00,
2013-01-18 10:10:00,42.4,28.2,30.45,South,186,10.8,16.0,57,0.00,,OVC004,0.00,VWS V14.01,2013-01-18 16:10:00,
2013-01-18 10:12:00,42.4,28.2,30.45,SSW,204,10.3,17.2,57,0.00,,OVC004,0.00,VWS V14.01,2013-01-18 16:12:00,
2013-01-18 10:13:00,42.6,28.4,30.45,SSW,193,8.3,17.2,57,0.00,,CLR,0.00,VWS V14.01,2013-01-18 16:13:00,
2013-01-18 10:14:00,42.8,28.5,30.45,South,187,13.6,14.2,57,0.00,,OVC004,0.00,VWS V14.01,2013-01-18 16:14:00,
2013-01-18 10:16:00,42.8,28.0,30.45,South,187,10.3,17.2,55,0.00,,OVC004,0.00,VWS V14.01,2013-01-18 16:16:00,
2013-01-18 10:18:00,43.3,29.0,30.45,South,191,10.3,10.8,57,0.00,,CLR,0.00,VWS V14.01,2013-01-18 16:18:00,
2013-01-18 10:20:00,43.3,29.0,30.45,WSW,242,4.4,10.8,57,0.00,,OVC004,0.00,VWS V14.01,2013-01-18 16:20:00,
2013-01-18 10:22:00,43.7,29.4,30.45,SSW,194,10.0,11.3,57,0.00,,OVC004,0.00,VWS V14.01,2013-01-18 16:22:00,
2013-01-18 10:23:00,44.1,29.7,30.42,South,186,5.0,10.8,57,0.00,,CLR,0.00,VWS V14.01,2013-01-18 16:23:00,
2013-01-18 10:24:00,44.1,29.7,30.42,South,178,5.0,10.8,57,0.00,,OVC004,0.00,VWS V14.01,2013-01-18 16:24:00,
2013-01-18 10:26:00,44.4,29.5,30.42,WSW,239,16.4,17.2,55,0.00,,OVC004,0.00,VWS V14.01,2013-01-18 16:26:00,
2013-01-18 10:28:00,44.8,29.2,30.42,WSW,254,7.2,13.1,54,0.00,,CLR,0.00,VWS V14.01,2013-01-18 16:28:00,
2013-01-18 10:30:00,44.8,29.2,30.42,South,188,13.6,14.2,54,0.00,,OVC004,0.00,VWS V14.01,2013-01-18 16:30:00,
2013-01-18 10:32:00,45.1,29.0,30.42,SSW,193,9.4,13.7,53,0.00,,OVC004,0.00,VWS V14.01,2013-01-18 16:32:00,
2013-01-18 10:33:00,45.3,29.1,30.42,South,183,7.2,16.0,53,0.00,,CLR,0.00,VWS V14.01,2013-01-18 16:33:00,
2013-01-18 10:34:00,45.3,29.1,30.42,South,183,7.2,16.0,53,0.00,,OVC004,0.00,VWS V14.01,2013-01-18 16:34:00,
2013-01-18 10:36:00,45.5,29.3,30.42,South,187,7.2,16.6,53,0.00,,OVC004,0.00,VWS V14.01,2013-01-18 16:36:00,
2013-01-18 10:38:00,45.7,29.5,30.42,SSW,196,10.3,11.3,53,0.00,,OVC004,0.00,VWS V14.01,2013-01-18 16:38:00,
2013-01-18 10:39:00,45.9,29.6,30.42,South,187,13.0,16.6,53,0.00,,CLR,0.00,VWS V14.01,2013-01-18 16:39:00,
2013-01-18 10:40:00,46.0,29.8,30.42,SW,228,10.8,16.6,53,0.00,,OVC004,0.00,VWS V14.01,2013-01-18 16:40:00,
2013-01-18 10:42:00,46.2,30.0,30.42,SW,222,13.0,15.4,53,0.00,,OVC004,0.00,VWS V14.01,2013-01-18 16:42:00,
2013-01-18 10:44:00,46.6,29.7,30.42,SW,232,13.6,14.2,51,0.00,,CLR,0.00,VWS V14.01,2013-01-18 16:44:00,
2013-01-18 10:46:00,46.8,29.8,30.42,SW,235,13.0,17.2,51,0.00,,OVC004,0.00,VWS V14.01,2013-01-18 16:46:00,
2013-01-18 10:48:00,46.9,30.0,30.42,SE,139,3.9,14.2,51,0.00,,OVC004,0.00,VWS V14.01,2013-01-18 16:48:00,
2013-01-18 10:49:00,47.1,30.2,30.42,SSW,198,10.3,13.7,51,0.00,,CLR,0.00,VWS V14.01,2013-01-18 16:49:00,
2013-01-18 10:50:00,47.3,29.7,30.42,South,171,11.9,13.1,50,0.00,,OVC004,0.00,VWS V14.01,2013-01-18 16:50:00,
2013-01-18 10:52:00,47.5,30.5,30.42,SSW,206,6.7,12.5,51,0.00,,OVC004,0.00,VWS V14.01,2013-01-18 16:52:00,
2013-01-18 10:54:00,47.8,30.8,30.42,SW,233,10.3,13.1,51,0.00,,CLR,0.00,VWS V14.01,2013-01-18 16:54:00,
2013-01-18 10:56:00,48.0,30.4,30.42,SW,218,13.6,17.2,50,0.00,,OVC004,0.00,VWS V14.01,2013-01-18 16:56:00,
2013-01-18 10:58:00,48.2,30.5,30.42,SSW,203,10.8,15.4,50,0.00,,OVC004,0.00,VWS V14.01,2013-01-18 16:58:00,
2013-01-18 10:59:00,48.4,30.7,30.42,SW,214,15.8,16.6,50,0.00,,CLR,0.00,VWS V14.01,2013-01-18 16:59:00,
2013-01-18 11:00:00,48.4,30.0,30.42,SSW,197,10.3,16.6,49,0.00,,OVC004,0.00,VWS V14.01,2013-01-18 17:00:00,
2013-01-18 11:02:00,48.4,30.0,30.42,SW,224,15.8,18.9,49,0.00,,OVC004,0.00,VWS V14.01,2013-01-18 17:02:00,
2013-01-18 11:04:00,48.6,30.2,30.42,SW,224,12.5,16.6,49,0.00,,CLR,0.00,VWS V14.01,2013-01-18 17:04:00,
2013-01-18 11:06:00,48.6,30.2,30.42,WSW,243,7.2,14.2,49,0.00,,OVC004,0.00,VWS V14.01,2013-01-18 17:06:00,
2013-01-18 11:08:00,48.7,30.4,30.42,SSW,212,10.8,16.6,49,0.00,,OVC004,0.00,VWS V14.01,2013-01-18 17:08:00,
2013-01-18 11:09:00,48.9,30.5,30.42,SW,236,18.6,19.5,49,0.00,,CLR,0.00,VWS V14.01,2013-01-18 17:09:00,
2013-01-18 11:10:00,48.9,30.5,30.42,SW,236,15.8,19.5,49,0.00,,OVC004,0.00,VWS V14.01,2013-01-18 17:10:00,
2013-01-18 11:12:00,49.1,30.7,30.42,SSW,202,13.0,19.5,49,0.00,,OVC004,0.00,VWS V14.01,2013-01-18 17:12:00,
2013-01-18 11:14:00,49.1,30.7,30.42,SW,223,16.4,23.3,49,0.00,,CLR,0.00,VWS V14.01,2013-01-18 17:14:00,
2013-01-18 11:16:00,49.1,30.7,30.42,SSW,211,10.0,22.7,49,0.00,,OVC004,0.00,VWS V14.01,2013-01-18 17:16:00,
2013-01-18 11:18:00,49.1,30.7,30.42,SW,223,13.6,18.3,49,0.00,,OVC004,0.00,VWS V14.01,2013-01-18 17:18:00,
2013-01-18 11:19:00,49.1,30.7,30.42,WSW,238,13.6,16.6,49,0.00,,CLR,0.00,VWS V14.01,2013-01-18 17:19:00,
2013-01-18 11:20:00,49.1,30.7,30.42,WSW,243,21.1,22.1,49,0.00,,OVC004,0.00,VWS V14.01,2013-01-18 17:20:00,
2013-01-18 11:22:00,49.3,30.9,30.42,WSW,251,14.1,22.1,49,0.00,,OVC004,0.00,VWS V14.01,2013-01-18 17:22:00,
2013-01-18 11:24:00,49.5,31.0,30.39,SW,225,13.6,19.5,49,0.00,,CLR,0.00,VWS V14.01,2013-01-18 17:24:00,
2013-01-18 11:26:00,49.6,30.5,30.39,SSW,205,10.3,17.2,48,0.00,,OVC004,0.00,VWS V14.01,2013-01-18 17:26:00,
2013-01-18 11:28:00,49.6,31.2,30.39,SW,233,10.3,15.4,49,0.00,,OVC004,0.00,VWS V14.01,2013-01-18 17:28:00,
2013-01-18 11:29:00,49.8,30.7,30.39,SW,223,12.5,18.3,48,0.00,,CLR,0.00,VWS V14.01,2013-01-18 17:29:00,
2013-01-18 11:30:00,49.8,30.7,30.39,SW,217,10.8,18.3,48,0.00,,OVC004,0.00,VWS V14.01,2013-01-18 17:30:00,
2013-01-18 11:32:00,50.0,30.9,30.39,SSW,194,13.6,16.0,48,0.00,,OVC004,0.00,VWS V14.01,2013-01-18 17:32:00,
2013-01-18 11:34:00,50.2,31.0,30.39,SW,225,13.6,19.5,48,0.00,,CLR,0.00,VWS V14.01,2013-01-18 17:34:00,
2013-01-18 11:36:00,50.2,31.0,30.39,SSW,205,10.3,17.2,48,0.00,,OVC004,0.00,VWS V14.01,2013-01-18 17:36:00,
2013-01-18 11:38:00,50.5,30.6,30.39,SSW,213,18.6,19.5,46,0.00,,OVC004,0.00,VWS V14.01,2013-01-18 17:38:00,
2013-01-18 11:39:00,50.5,29.9,30.39,SSW,213,12.5,19.5,45,0.00,,CLR,0.00,VWS V14.01,2013-01-18 17:39:00,
2013-01-18 11:40:00,50.5,29.9,30.39,SSW,203,10.8,19.5,45,0.00,,OVC004,0.00,VWS V14.01,2013-01-18 17:40:00,
2013-01-18 11:42:00,50.7,30.8,30.39,SSW,210,10.0,14.2,46,0.00,,OVC004,0.00,VWS V14.01,2013-01-18 17:42:00,
2013-01-18 11:44:00,50.9,30.3,30.39,SSW,212,12.5,18.9,45,0.00,,CLR,0.00,VWS V14.01,2013-01-18 17:44:00,
2013-01-18 11:46:00,51.1,30.4,30.39,South,190,13.0,16.6,45,0.00,,OVC004,0.00,VWS V14.01,2013-01-18 17:46:00,
2013-01-18 11:48:00,51.4,30.8,30.39,SW,215,12.5,16.0,45,0.00,,OVC004,0.00,VWS V14.01,2013-01-18 17:48:00,
2013-01-18 11:49:00,51.6,30.9,30.39,SW,227,18.0,18.9,45,0.00,,CLR,0.00,VWS V14.01,2013-01-18 17:49:00,
2013-01-18 11:50:00,51.6,30.9,30.39,SW,227,16.4,18.9,45,0.00,,OVC004,0.00,VWS V14.01,2013-01-18 17:50:00,
2013-01-18 11:52:00,51.6,30.2,30.39,SW,232,10.8,16.6,44,0.00,,OVC004,0.00,VWS V14.01,2013-01-18 17:52:00,
2013-01-18 11:54:00,51.8,30.4,30.39,WSW,243,12.5,20.1,44,0.00,,CLR,0.00,VWS V14.01,2013-01-18 17:54:00,
2013-01-18 11:56:00,51.8,30.4,30.39,SW,215,16.4,17.2,44,0.00,,OVC004,0.00,VWS V14.01,2013-01-18 17:56:00,
2013-01-18 11:58:00,52.0,30.5,30.39,SW,225,10.8,17.2,44,0.00,,OVC004,0.00,VWS V14.01,2013-01-18 17:58:00,
2013-01-18 11:59:00,52.2,29.9,30.39,South,180,15.8,16.6,42,0.00,,CLR,0.00,VWS V14.01,2013-01-18 17:59:00,
2013-01-18 12:00:00,52.2,29.9,30.39,South,175,13.0,16.6,42,0.00,,OVC004,0.00,VWS V14.01,2013-01-18 18:00:00,
2013-01-18 12:02:00,52.2,29.9,30.39,SSW,195,14.7,19.5,42,0.00,,OVC004,0.00,VWS V14.01,2013-01-18 18:02:00,
2013-01-18 12:04:00,52.0,29.8,30.39,SW,224,13.6,16.6,42,0.00,,CLR,0.00,VWS V14.01,2013-01-18 18:04:00,
2013-01-18 12:06:00,52.0,29.8,30.39,SSW,203,7.8,19.5,42,0.00,,OVC004,0.00,VWS V14.01,2013-01-18 18:06:00,
2013-01-18 12:08:00,52.0,29.8,30.39,SSW,210,10.0,14.2,42,0.00,,OVC004,0.00,VWS V14.01,2013-01-18 18:08:00,
2013-01-18 12:09:00,52.2,29.9,30.36,South,191,13.6,14.8,42,0.00,,CLR,0.00,VWS V14.01,2013-01-18 18:09:00,
2013-01-18 12:10:00,52.2,29.9,30.36,SW,220,12.5,14.8,42,0.00,,OVC004,0.00,VWS V14.01,2013-01-18 18:10:00,
2013-01-18 12:12:00,52.2,29.9,30.36,SSW,202,9.4,13.7,42,0.00,,OVC004,0.00,VWS V14.01,2013-01-18 18:12:00,
2013-01-18 12:14:00,52.5,30.2,30.36,SSW,204,10.8,16.6,42,0.00,,CLR,0.00,VWS V14.01,2013-01-18 18:14:00,
2013-01-18 12:16:00,52.5,29.5,30.36,SSW,202,15.3,20.1,41,0.00,,OVC004,0.00,VWS V14.01,2013-01-18 18:16:00,
2013-01-18 12:18:00,52.7,29.6,30.36,SSW,213,18.0,21.8,41,0.00,,OVC004,0.00,VWS V14.01,2013-01-18 18:18:00,
2013-01-18 12:19:00,52.7,29.6,30.36,SW,221,15.3,19.5,41,0.00,,CLR,0.00,VWS V14.01,2013-01-18 18:19:00,
2013-01-18 12:20:00,52.7,29.6,30.36,SSW,205,12.5,19.5,41,0.00,,OVC004,0.00,VWS V14.01,2013-01-18 18:20:00,
2013-01-18 12:22:00,52.7,29.6,30.36,SSW,194,11.9,16.6,41,0.00,,OVC004,0.00,VWS V14.01,2013-01-18 18:22:00,
2013-01-18 12:24:00,52.9,29.0,30.36,WSW,245,24.4,25.6,40,0.00,,CLR,0.00,VWS V14.01,2013-01-18 18:24:00,
2013-01-18 12:26:00,53.1,29.1,30.36,SW,221,15.3,25.6,40,0.00,,OVC004,0.00,VWS V14.01,2013-01-18 18:26:00,
2013-01-18 12:28:00,53.1,29.1,30.36,SSW,197,13.6,19.5,40,0.00,,OVC004,0.00,VWS V14.01,2013-01-18 18:28:00,
2013-01-18 12:29:00,53.2,29.3,30.36,SW,230,15.8,20.1,40,0.00,,CLR,0.00,VWS V14.01,2013-01-18 18:29:00,
2013-01-18 12:30:00,53.1,29.1,30.36,SW,224,18.6,20.1,40,0.00,,OVC004,0.00,VWS V14.01,2013-01-18 18:30:00,
2013-01-18 12:32:00,53.1,29.1,30.36,SSW,210,17.5,22.7,40,0.00,,OVC004,0.00,VWS V14.01,2013-01-18 18:32:00,
2013-01-18 12:34:00,53.1,29.1,30.36,SSW,211,13.0,18.3,40,0.00,,OVC004,0.00,VWS V14.01,2013-01-18 18:34:00,
2013-01-18 12:35:00,53.1,29.1,30.36,SW,231,18.0,18.9,40,0.00,,CLR,0.00,VWS V14.01,2013-01-18 18:35:00,
2013-01-18 12:36:00,53.1,29.1,30.36,South,184,15.8,19.5,40,0.00,,OVC004,0.00,VWS V14.01,2013-01-18 18:36:00,
2013-01-18 12:38:00,53.1,29.1,30.36,SW,229,15.3,16.6,40,0.00,,OVC004,0.00,VWS V14.01,2013-01-18 18:38:00,
2013-01-18 12:40:00,53.1,29.1,30.33,SSW,209,15.8,17.2,40,0.00,,CLR,0.00,VWS V14.01,2013-01-18 18:40:00,
2013-01-18 12:42:00,53.1,29.1,30.33,SSW,193,10.3,17.2,40,0.00,,OVC004,0.00,VWS V14.01,2013-01-18 18:42:00,
2013-01-18 12:44:00,53.1,29.1,30.33,WSW,245,13.0,17.7,40,0.00,,OVC004,0.00,VWS V14.01,2013-01-18 18:44:00,
2013-01-18 12:45:00,53.1,29.1,30.33,SSW,203,14.7,16.0,40,0.00,,CLR,0.00,VWS V14.01,2013-01-18 18:45:00,
2013-01-18 12:46:00,53.2,29.3,30.33,South,184,16.4,17.2,40,0.00,,OVC004,0.00,VWS V14.01,2013-01-18 18:46:00,
2013-01-18 12:48:00,53.2,28.5,30.33,WSW,244,10.3,22.7,38,0.00,,OVC004,0.00,VWS V14.01,2013-01-18 18:48:00,
2013-01-18 12:50:00,53.2,28.5,30.33,SSW,206,15.8,22.1,38,0.00,,CLR,0.00,VWS V14.01,2013-01-18 18:50:00,
2013-01-18 12:52:00,53.4,28.6,30.33,SW,218,16.4,20.1,38,0.00,,OVC004,0.00,VWS V14.01,2013-01-18 18:52:00,
2013-01-18 12:54:00,53.4,28.6,30.33,SW,215,15.3,17.2,38,0.00,,OVC004,0.00,VWS V14.01,2013-01-18 18:54:00,
2013-01-18 12:55:00,53.4,28.6,30.33,SSE,162,12.5,18.3,38,0.00,,CLR,0.00,VWS V14.01,2013-01-18 18:55:00,
2013-01-18 12:56:00,53.6,28.8,30.33,WSW,252,13.6,18.3,38,0.00,,OVC004,0.00,VWS V14.01,2013-01-18 18:56:00,
2013-01-18 12:58:00,53.6,28.8,30.33,WSW,245,16.4,17.2,38,0.00,,OVC004,0.00,VWS V14.01,2013-01-18 18:58:00,
2013-01-18 13:00:00,53.8,29.0,30.33,SW,219,6.7,20.1,38,0.00,,CLR,0.00,VWS V14.01,2013-01-18 19:00:00,
2013-01-18 13:02:00,54.1,29.3,30.33,SSW,204,14.7,19.5,38,0.00,,OVC004,0.00,VWS V14.01,2013-01-18 19:02:00,
2013-01-18 13:04:00,54.1,28.4,30.33,SW,222,18.6,20.1,37,0.00,,OVC004,0.00,VWS V14.01,2013-01-18 19:04:00,
2013-01-18 13:05:00,54.1,28.4,30.33,South,181,10.8,19.5,37,0.00,,CLR,0.00,VWS V14.01,2013-01-18 19:05:00,
2013-01-18 13:06:00,54.1,28.4,30.33,South,187,17.5,19.5,37,0.00,,OVC004,0.00,VWS V14.01,2013-01-18 19:06:00,
2013-01-18 13:08:00,54.1,28.4,30.33,WSW,242,18.6,19.5,37,0.00,,OVC004,0.00,VWS V14.01,2013-01-18 19:08:00,
2013-01-18 13:10:00,54.1,28.4,30.33,SW,228,13.0,22.7,37,0.00,,CLR,0.00,VWS V14.01,2013-01-18 19:10:00,
2013-01-18 13:12:00,54.3,28.6,30.33,SSW,209,15.8,17.2,37,0.00,,OVC004,0.00,VWS V14.01,2013-01-18 19:12:00,
2013-01-18 13:14:00,54.3,28.6,30.33,WSW,250,12.5,16.6,37,0.00,,OVC004,0.00,VWS V14.01,2013-01-18 19:14:00,
2013-01-18 13:15:00,54.5,28.8,30.33,SSW,197,12.5,16.0,37,0.00,,CLR,0.00,VWS V14.01,2013-01-18 19:15:00,
2013-01-18 13:16:00,54.5,28.8,30.33,SSW,196,13.6,16.0,37,0.00,,OVC004,0.00,VWS V14.01,2013-01-18 19:16:00,
2013-01-18 13:18:00,54.7,28.9,30.33,SSW,209,13.0,14.2,37,0.00,,OVC004,0.00,VWS V14.01,2013-01-18 19:18:00,
2013-01-18 13:20:00,54.9,29.1,30.33,SW,214,14.7,16.6,37,0.00,,CLR,0.00,VWS V14.01,2013-01-18 19:20:00,
2013-01-18 13:22:00,54.9,29.1,30.33,South,185,12.5,16.6,37,0.00,,OVC004,0.00,VWS V14.01,2013-01-18 19:22:00,
2013-01-18 13:24:00,54.9,29.1,30.33,SW,223,10.3,17.2,37,0.00,,OVC004,0.00,VWS V14.01,2013-01-18 19:24:00,
2013-01-18 13:25:00,54.9,29.1,30.33,South,180,10.0,13.7,37,0.00,,CLR,0.00,VWS V14.01,2013-01-18 19:25:00,
2013-01-18 13:26:00,54.9,29.1,30.33,WSW,250,10.0,13.7,37,0.00,,OVC004,0.00,VWS V14.01,2013-01-18 19:26:00,
2013-01-18 13:28:00,55.0,29.2,30.33,SW,218,16.9,22.7,37,0.00,,OVC004,0.00,VWS V14.01,2013-01-18 19:28:00,
2013-01-18 13:30:00,55.0,29.2,30.33,WSW,243,7.2,17.2,37,0.00,,CLR,0.00,VWS V14.01,2013-01-18 19:30:00,
2013-01-18 13:32:00,55.0,29.2,30.33,SW,217,10.8,17.2,37,0.00,,OVC004,0.00,VWS V14.01,2013-01-18 19:32:00,
2013-01-18 13:34:00,55.2,29.4,30.33,South,180,13.6,14.8,37,0.00,,OVC004,0.00,VWS V14.01,2013-01-18 19:34:00,
2013-01-18 13:35:00,55.2,29.4,30.33,SSW,195,16.4,18.3,37,0.00,,CLR,0.00,VWS V14.01,2013-01-18 19:35:00,
2013-01-18 13:36:00,55.2,29.4,30.33,SW,214,17.5,18.3,37,0.00,,OVC004,0.00,VWS V14.01,2013-01-18 19:36:00,
2013-01-18 13:38:00,55.2,29.4,30.33,SW,217,11.9,18.3,37,0.00,,OVC004,0.00,VWS V14.01,2013-01-18 19:38:00,
2013-01-18 13:40:00,55.2,29.4,30.30,SW,231,10.8,16.6,37,0.00,,CLR,0.00,VWS V14.01,2013-01-18 19:40:00,
2013-01-18 13:42:00,55.4,28.7,30.30,SW,225,12.5,16.0,36,0.00,,OVC004,0.00,VWS V14.01,2013-01-18 19:42:00,
2013-01-18 13:44:00,55.6,28.8,30.30,SW,229,12.5,13.1,36,0.00,,OVC004,0.00,VWS V14.01,2013-01-18 19:44:00,
2013-01-18 13:45:00,55.8,29.0,30.30,SW,223,13.6,16.0,36,0.00,,CLR,0.00,VWS V14.01,2013-01-18 19:45:00,
2013-01-18 13:46:00,55.8,29.0,30.30,SW,215,13.6,16.0,36,0.00,,OVC004,0.00,VWS V14.01,2013-01-18 19:46:00,
2013-01-18 13:48:00,55.8,29.0,30.30,SSW,213,8.9,16.6,36,0.00,,OVC004,0.00,VWS V14.01,2013-01-18 19:48:00,
2013-01-18 13:50:00,55.8,29.0,30.30,SW,214,9.4,11.3,36,0.00,,CLR,0.00,VWS V14.01,2013-01-18 19:50:00,
2013-01-18 13:52:00,55.9,29.1,30.30,SSW,192,12.5,16.6,36,0.00,,OVC004,0.00,VWS V14.01,2013-01-18 19:52:00,
2013-01-18 13:54:00,55.9,29.1,30.30,SSW,208,11.9,16.6,36,0.00,,OVC004,0.00,VWS V14.01,2013-01-18 19:54:00,
2013-01-18 13:55:00,55.9,29.1,30.30,SW,230,18.6,19.5,36,0.00,,CLR,0.00,VWS V14.01,2013-01-18 19:55:00,
2013-01-18 13:56:00,55.9,29.1,30.30,South,188,13.6,19.5,36,0.00,,OVC004,0.00,VWS V14.01,2013-01-18 19:56:00,
2013-01-18 13:58:00,55.8,29.0,30.30,SSW,212,13.6,17.2,36,0.00,,OVC004,0.00,VWS V14.01,2013-01-18 19:58:00,
2013-01-18 14:00:00,55.8,29.0,30.30,SW,214,12.5,16.6,36,0.00,,CLR,0.00,VWS V14.01,2013-01-18 20:00:00,
2013-01-18 14:02:00,55.8,29.0,30.30,SW,231,16.9,17.7,36,0.00,,OVC004,0.00,VWS V14.01,2013-01-18 20:02:00,
2013-01-18 14:04:00,55.8,29.0,30.30,WSW,248,13.6,17.7,36,0.00,,OVC004,0.00,VWS V14.01,2013-01-18 20:04:00,
2013-01-18 14:05:00,55.8,29.0,30.30,SW,230,13.6,16.0,36,0.00,,CLR,0.00,VWS V14.01,2013-01-18 20:05:00,
2013-01-18 14:06:00,55.8,29.0,30.30,SW,217,15.3,16.0,36,0.00,,OVC004,0.00,VWS V14.01,2013-01-18 20:06:00,
2013-01-18 14:08:00,55.9,29.1,30.30,WSW,246,10.0,16.0,36,0.00,,OVC004,0.00,VWS V14.01,2013-01-18 20:08:00,
2013-01-18 14:10:00,55.9,29.1,30.30,SSW,200,10.3,14.2,36,0.00,,CLR,0.00,VWS V14.01,2013-01-18 20:10:00,
2013-01-18 14:12:00,55.9,29.1,30.30,SW,222,7.8,14.2,36,0.00,,OVC004,0.00,VWS V14.01,2013-01-18 20:12:00,
2013-01-18 14:14:00,56.1,29.3,30.30,WSW,239,13.0,16.6,36,0.00,,OVC004,0.00,VWS V14.01,2013-01-18 20:14:00,
2013-01-18 14:15:00,56.3,29.5,30.30,SW,216,10.8,16.6,36,0.00,,CLR,0.00,VWS V14.01,2013-01-18 20:15:00,
2013-01-18 14:16:00,56.3,29.5,30.30,SW,235,10.0,16.6,36,0.00,,OVC004,0.00,VWS V14.01,2013-01-18 20:16:00,
2013-01-18 14:18:00,56.3,29.5,30.30,SW,231,13.0,20.1,36,0.00,,OVC004,0.00,VWS V14.01,2013-01-18 20:18:00,
2013-01-18 14:20:00,56.3,29.5,30.30,West,259,15.8,19.5,36,0.00,,CLR,0.00,VWS V14.01,2013-01-18 20:20:00,
2013-01-18 14:22:00,56.1,29.3,30.30,SW,225,16.4,19.5,36,0.00,,OVC004,0.00,VWS V14.01,2013-01-18 20:22:00,
2013-01-18 14:24:00,56.1,29.3,30.30,SW,222,9.4,17.2,36,0.00,,OVC004,0.00,VWS V14.01,2013-01-18 20:24:00,
2013-01-18 14:25:00,56.1,29.3,30.30,SW,235,13.6,16.0,36,0.00,,CLR,0.00,VWS V14.01,2013-01-18 20:25:00,
2013-01-18 14:26:00,56.1,29.3,30.30,SW,225,13.0,16.0,36,0.00,,OVC004,0.00,VWS V14.01,2013-01-18 20:26:00,
2013-01-18 14:28:00,55.9,29.1,30.30,WSW,243,13.0,13.7,36,0.00,,OVC004,0.00,VWS V14.01,2013-01-18 20:28:00,
2013-01-18 14:30:00,56.1,29.3,30.30,South,186,10.8,17.2,36,0.00,,CLR,0.00,VWS V14.01,2013-01-18 20:30:00,
2013-01-18 14:32:00,56.3,29.5,30.30,SW,236,13.0,17.2,36,0.00,,OVC004,0.00,VWS V14.01,2013-01-18 20:32:00,
2013-01-18 14:34:00,56.3,29.5,30.30,SSW,199,10.0,16.6,36,0.00,,OVC004,0.00,VWS V14.01,2013-01-18 20:34:00,
2013-01-18 14:35:00,56.3,29.5,30.30,West,265,16.9,17.7,36,0.00,,CLR,0.00,VWS V14.01,2013-01-18 20:35:00,
2013-01-18 14:36:00,56.3,29.5,30.30,WSW,253,16.4,17.7,36,0.00,,OVC004,0.00,VWS V14.01,2013-01-18 20:36:00,
2013-01-18 14:38:00,56.3,29.5,30.30,SW,217,18.6,20.1,36,0.00,,OVC004,0.00,VWS V14.01,2013-01-18 20:38:00,
2013-01-18 14:40:00,56.1,29.3,30.30,SW,228,15.8,20.1,36,0.00,,OVC004,0.00,VWS V14.01,2013-01-18 20:40:00,
2013-01-18 14:41:00,56.1,29.3,30.30,SSW,210,15.3,18.3,36,0.00,,CLR,0.00,VWS V14.01,2013-01-18 20:41:00,
2013-01-18 14:42:00,55.9,29.1,30.30,West,259,13.6,18.3,36,0.00,,OVC004,0.00,VWS V14.01,2013-01-18 20:42:00,
2013-01-18 14:44:00,55.9,29.1,30.30,SW,226,15.3,17.2,36,0.00,,OVC004,0.00,VWS V14.01,2013-01-18 20:44:00,
2013-01-18 14:46:00,55.9,29.1,30.30,WSW,239,7.2,16.0,36,0.00,,CLR,0.00,VWS V14.01,2013-01-18 20:46:00,
2013-01-18 14:48:00,55.9,28.2,30.30,SW,230,18.6,19.5,34,0.00,,OVC004,0.00,VWS V14.01,2013-01-18 20:48:00,
2013-01-18 14:50:00,55.9,29.1,30.30,SW,227,12.5,21.8,36,0.00,,OVC004,0.00,VWS V14.01,2013-01-18 20:50:00,
2013-01-18 14:51:00,55.9,29.1,30.30,South,188,12.5,17.2,36,0.00,,CLR,0.00,VWS V14.01,2013-01-18 20:51:00,
2013-01-18 14:52:00,55.9,28.2,30.30,SW,222,12.5,16.6,34,0.00,,OVC004,0.00,VWS V14.01,2013-01-18 20:52:00,
2013-01-18 14:54:00,55.9,28.2,30.27,SSW,202,15.8,16.6,34,0.00,,OVC004,0.00,VWS V14.01,2013-01-18 20:54:00,
2013-01-18 14:56:00,55.9,28.2,30.27,SW,220,15.8,16.6,34,0.00,,CLR,0.00,VWS V14.01,2013-01-18 20:56:00,
2013-01-18 14:58:00,55.8,28.1,30.27,SSW,206,16.4,17.2,34,0.00,,OVC004,0.00,VWS V14.01,2013-01-18 20:58:00,
2013-01-18 15:00:00,55.8,28.1,30.27,SW,219,15.8,22.1,34,0.00,,OVC004,0.00,VWS V14.01,2013-01-18 21:00:00,
2013-01-18 15:01:00,55.6,27.9,30.27,WSW,245,13.0,22.1,34,0.00,,CLR,0.00,VWS V14.01,2013-01-18 21:01:00,
2013-01-18 15:02:00,55.6,27.9,30.27,SW,220,12.5,16.6,34,0.00,,OVC004,0.00,VWS V14.01,2013-01-18 21:02:00,
2013-01-18 15:04:00,55.8,28.1,30.27,SSW,196,10.0,19.5,34,0.00,,OVC004,0.00,VWS V14.01,2013-01-18 21:04:00,
2013-01-18 15:06:00,55.6,27.9,30.27,SSW,209,15.3,19.5,34,0.00,,CLR,0.00,VWS V14.01,2013-01-18 21:06:00,
2013-01-18 15:08:00,55.6,27.9,30.27,South,189,13.6,17.2,34,0.00,,OVC004,0.00,VWS V14.01,2013-01-18 21:08:00,
2013-01-18 15:10:00,55.6,27.9,30.27,SSW,203,13.0,16.6,34,0.00,,OVC004,0.00,VWS V14.01,2013-01-18 21:10:00,
2013-01-18 15:11:00,55.8,28.1,30.27,SW,218,22.7,23.8,34,0.00,,CLR,0.00,VWS V14.01,2013-01-18 21:11:00,
2013-01-18 15:12:00,55.8,28.1,30.27,SW,224,18.6,23.8,34,0.00,,OVC004,0.00,VWS V14.01,2013-01-18 21:12:00,
2013-01-18 15:14:00,55.6,27.9,30.27,WSW,238,10.0,21.8,34,0.00,,OVC004,0.00,VWS V14.01,2013-01-18 21:14:00,
2013-01-18 15:16:00,55.6,27.9,30.27,SW,228,15.8,16.6,34,0.00,,CLR,0.00,VWS V14.01,2013-01-18 21:16:00,
2013-01-18 15:18:00,55.6,27.9,30.27,SW,215,15.3,17.2,34,0.00,,OVC004,0.00,VWS V14.01,2013-01-18 21:18:00,
2013-01-18 15:20:00,55.6,27.9,30.27,SSW,192,10.8,19.5,34,0.00,,OVC004,0.00,VWS V14.01,2013-01-18 21:20:00,
2013-01-18 15:21:00,55.6,27.9,30.27,SW,223,13.0,19.5,34,0.00,,CLR,0.00,VWS V14.01,2013-01-18 21:21:00,
2013-01-18 15:22:00,55.6,27.9,30.27,SW,221,10.8,19.5,34,0.00,,OVC004,0.00,VWS V14.01,2013-01-18 21:22:00,
2013-01-18 15:24:00,55.6,27.9,30.27,SW,227,10.8,17.7,34,0.00,,OVC004,0.00,VWS V14.01,2013-01-18 21:24:00,
2013-01-18 15:26:00,55.6,27.9,30.27,SSW,212,13.6,17.2,34,0.00,,CLR,0.00,VWS V14.01,2013-01-18 21:26:00,
2013-01-18 15:28:00,55.6,27.9,30.27,SSW,193,7.8,17.2,34,0.00,,OVC004,0.00,VWS V14.01,2013-01-18 21:28:00,
2013-01-18 15:30:00,55.6,27.9,30.27,South,177,13.0,17.2,34,0.00,,OVC004,0.00,VWS V14.01,2013-01-18 21:30:00,
2013-01-18 15:31:00,55.6,27.9,30.27,SW,218,15.3,16.0,34,0.00,,CLR,0.00,VWS V14.01,2013-01-18 21:31:00,
2013-01-18 15:32:00,55.6,27.9,30.27,SSW,207,10.3,16.0,34,0.00,,OVC004,0.00,VWS V14.01,2013-01-18 21:32:00,
2013-01-18 15:34:00,55.6,27.9,30.27,SW,219,10.3,19.5,34,0.00,,OVC004,0.00,VWS V14.01,2013-01-18 21:34:00,
2013-01-18 15:36:00,55.6,27.9,30.27,South,182,10.8,14.8,34,0.00,,CLR,0.00,VWS V14.01,2013-01-18 21:36:00,
2013-01-18 15:38:00,55.6,27.9,30.27,SW,226,10.3,13.7,34,0.00,,OVC004,0.00,VWS V14.01,2013-01-18 21:38:00,
2013-01-18 15:40:00,55.6,27.9,30.27,SW,220,10.8,16.6,34,0.00,,OVC004,0.00,VWS V14.01,2013-01-18 21:40:00,
2013-01-18 15:41:00,55.6,27.9,30.27,SW,219,10.8,12.5,34,0.00,,CLR,0.00,VWS V14.01,2013-01-18 21:41:00,
2013-01-18 15:42:00,55.8,28.1,30.27,SSW,211,7.8,11.3,34,0.00,,OVC004,0.00,VWS V14.01,2013-01-18 21:42:00,
2013-01-18 15:44:00,55.8,28.1,30.27,SSW,207,10.3,19.5,34,0.00,,OVC004,0.00,VWS V14.01,2013-01-18 21:44:00,
2013-01-18 15:46:00,55.6,27.9,30.27,SSW,207,9.4,13.7,34,0.00,,CLR,0.00,VWS V14.01,2013-01-18 21:46:00,
2013-01-18 15:48:00,55.6,27.9,30.27,SSW,211,13.6,16.0,34,0.00,,OVC004,0.00,VWS V14.01,2013-01-18 21:48:00,
2013-01-18 15:50:00,55.6,27.9,30.27,SSW,210,15.8,16.6,34,0.00,,OVC004,0.00,VWS V14.01,2013-01-18 21:50:00,
2013-01-18 15:51:00,55.4,27.8,30.27,SSW,207,18.6,19.5,34,0.00,,CLR,0.00,VWS V14.01,2013-01-18 21:51:00,
2013-01-18 15:52:00,55.4,27.8,30.27,SSE,161,13.6,19.5,34,0.00,,OVC004,0.00,VWS V14.01,2013-01-18 21:52:00,
2013-01-18 15:54:00,55.2,27.6,30.27,SSW,208,10.0,18.9,34,0.00,,OVC004,0.00,VWS V14.01,2013-01-18 21:54:00,
2013-01-18 15:56:00,55.2,27.6,30.27,SSW,201,10.3,10.8,34,0.00,,CLR,0.00,VWS V14.01,2013-01-18 21:56:00,
2013-01-18 15:58:00,55.2,27.6,30.27,SW,218,7.8,11.3,34,0.00,,OVC004,0.00,VWS V14.01,2013-01-18 21:58:00,
2013-01-18 16:00:00,55.2,27.6,30.27,South,185,13.0,19.5,34,0.00,,OVC004,0.00,VWS V14.01,2013-01-18 22:00:00,
2013-01-18 16:01:00,55.2,27.6,30.27,SW,216,10.3,19.5,34,0.00,,CLR,0.00,VWS V14.01,2013-01-18 22:01:00,
2013-01-18 16:02:00,55.2,27.6,30.27,SSE,161,7.2,17.2,34,0.00,,OVC004,0.00,VWS V14.01,2013-01-18 22:02:00,
2013-01-18 16:04:00,55.0,27.4,30.27,SSW,202,9.4,17.2,34,0.00,,OVC004,0.00,VWS V14.01,2013-01-18 22:04:00,
2013-01-18 16:06:00,54.9,27.3,30.27,WSW,251,10.0,21.2,34,0.00,,CLR,0.00,VWS V14.01,2013-01-18 22:06:00,
2013-01-18 16:08:00,54.9,27.3,30.27,SSW,212,15.8,16.6,34,0.00,,OVC004,0.00,VWS V14.01,2013-01-18 22:08:00,
2013-01-18 16:10:00,54.9,27.3,30.27,SSW,207,13.6,16.6,34,0.00,,OVC004,0.00,VWS V14.01,2013-01-18 22:10:00,
2013-01-18 16:11:00,54.7,27.1,30.27,SSW,195,11.4,20.6,34,0.00,,CLR,0.00,VWS V14.01,2013-01-18 22:11:00,
2013-01-18 16:12:00,54.7,27.1,30.27,South,188,13.6,20.6,34,0.00,,OVC004,0.00,VWS V14.01,2013-01-18 22:12:00,
2013-01-18 16:14:00,54.5,27.0,30.27,SSW,194,12.5,16.0,34,0.00,,OVC004,0.00,VWS V14.01,2013-01-18 22:14:00,
2013-01-18 16:16:00,54.5,27.0,30.27,SSE,165,7.8,19.5,34,0.00,,CLR,0.00,VWS V14.01,2013-01-18 22:16:00,
2013-01-18 16:18:00,54.3,26.8,30.27,South,190,15.8,18.3,34,0.00,,OVC004,0.00,VWS V14.01,2013-01-18 22:18:00,
2013-01-18 16:20:00,54.3,26.8,30.27,SW,227,11.9,17.2,34,0.00,,OVC004,0.00,VWS V14.01,2013-01-18 22:20:00,
2013-01-18 16:21:00,54.1,26.6,30.27,SSW,202,10.0,17.2,34,0.00,,CLR,0.00,VWS V14.01,2013-01-18 22:21:00,
2013-01-18 16:22:00,54.1,26.6,30.27,SSW,200,10.8,17.2,34,0.00,,OVC004,0.00,VWS V14.01,2013-01-18 22:22:00,
2013-01-18 16:24:00,54.0,26.5,30.27,SSW,206,15.3,17.2,34,0.00,,OVC004,0.00,VWS V14.01,2013-01-18 22:24:00,
2013-01-18 16:26:00,53.8,26.3,30.27,SW,219,10.0,16.0,34,0.00,,CLR,0.00,VWS V14.01,2013-01-18 22:26:00,
2013-01-18 16:28:00,53.8,26.3,30.27,SW,226,10.0,13.7,34,0.00,,OVC004,0.00,VWS V14.01,2013-01-18 22:28:00,
2013-01-18 16:30:00,53.6,27.1,30.27,SSW,211,10.3,14.2,36,0.00,,OVC004,0.00,VWS V14.01,2013-01-18 22:30:00,
2013-01-18 16:31:00,53.6,27.1,30.27,SSW,202,7.2,10.8,36,0.00,,CLR,0.00,VWS V14.01,2013-01-18 22:31:00,
2013-01-18 16:32:00,53.6,27.1,30.27,SSW,203,13.0,13.7,36,0.00,,OVC004,0.00,VWS V14.01,2013-01-18 22:32:00,
2013-01-18 16:34:00,53.6,27.1,30.27,South,189,7.2,14.2,36,0.00,,OVC004,0.00,VWS V14.01,2013-01-18 22:34:00,
2013-01-18 16:36:00,53.4,26.9,30.27,SW,217,10.3,11.3,36,0.00,,CLR,0.00,VWS V14.01,2013-01-18 22:36:00,
2013-01-18 16:38:00,53.4,26.9,30.27,SSW,205,10.3,11.3,36,0.00,,OVC004,0.00,VWS V14.01,2013-01-18 22:38:00,
2013-01-18 16:40:00,53.4,26.9,30.27,SSW,198,10.3,12.5,36,0.00,,OVC004,0.00,VWS V14.01,2013-01-18 22:40:00,
2013-01-18 16:41:00,53.2,26.8,30.27,SSW,204,11.4,11.9,36,0.00,,CLR,0.00,VWS V14.01,2013-01-18 22:41:00,
2013-01-18 16:42:00,53.2,26.8,30.27,SSW,202,12.5,13.1,36,0.00,,OVC004,0.00,VWS V14.01,2013-01-18 22:42:00,
2013-01-18 16:44:00,53.1,26.6,30.27,WSW,237,10.3,13.1,36,0.00,,OVC004,0.00,VWS V14.01,2013-01-18 22:44:00,
2013-01-18 16:46:00,52.9,26.4,30.27,South,181,10.3,17.2,36,0.00,,CLR,0.00,VWS V14.01,2013-01-18 22:46:00,
2013-01-18 16:48:00,52.7,26.3,30.27,SW,218,10.3,19.5,36,0.00,,OVC004,0.00,VWS V14.01,2013-01-18 22:48:00,
2013-01-18 16:50:00,52.7,26.3,30.27,South,178,16.4,17.2,36,0.00,,OVC004,0.00,VWS V14.01,2013-01-18 22:50:00,
2013-01-18 16:51:00,52.5,26.1,30.27,SW,221,10.0,17.2,36,0.00,,CLR,0.00,VWS V14.01,2013-01-18 22:51:00,
2013-01-18 16:52:00,52.5,26.1,30.27,SSW,209,10.3,17.2,36,0.00,,OVC004,0.00,VWS V14.01,2013-01-18 22:52:00,
2013-01-18 16:54:00,52.3,26.0,30.27,SSW,200,9.4,16.6,36,0.00,,OVC004,0.00,VWS V14.01,2013-01-18 22:54:00,
2013-01-18 16:56:00,52.2,25.8,30.27,SSW,197,12.5,13.1,36,0.00,,CLR,0.00,VWS V14.01,2013-01-18 22:56:00,
2013-01-18 16:58:00,52.2,25.8,30.27,SSW,197,10.0,14.2,36,0.00,,OVC004,0.00,VWS V14.01,2013-01-18 22:58:00,
2013-01-18 17:00:00,52.0,25.6,30.27,SSE,159,10.0,16.0,36,0.00,,OVC004,0.00,VWS V14.01,2013-01-18 23:00:00,
2013-01-18 17:01:00,52.0,25.6,30.27,South,175,12.5,16.0,36,0.00,,CLR,0.00,VWS V14.01,2013-01-18 23:01:00,
2013-01-18 17:02:00,52.0,25.6,30.27,SSW,208,10.3,13.1,36,0.00,,OVC004,0.00,VWS V14.01,2013-01-18 23:02:00,
2013-01-18 17:04:00,51.8,26.4,30.27,South,175,5.0,13.1,37,0.00,,OVC004,0.00,VWS V14.01,2013-01-18 23:04:00,
2013-01-18 17:06:00,51.6,26.2,30.27,SSW,211,7.2,8.1,37,0.00,,CLR,0.00,VWS V14.01,2013-01-18 23:06:00,
2013-01-18 17:08:00,51.6,26.2,30.27,SSW,205,3.3,7.6,37,0.00,,OVC004,0.00,VWS V14.01,2013-01-18 23:08:00,
2013-01-18 17:10:00,51.4,26.0,30.27,SW,220,4.4,10.8,37,0.00,,OVC004,0.00,VWS V14.01,2013-01-18 23:10:00,
2013-01-18 17:11:00,51.3,25.9,30.27,South,189,6.7,8.1,37,0.00,,CLR,0.00,VWS V14.01,2013-01-18 23:11:00,
2013-01-18 17:12:00,51.3,25.9,30.27,South,189,6.7,8.1,37,0.00,,OVC004,0.00,VWS V14.01,2013-01-18 23:12:00,
2013-01-18 17:14:00,50.9,25.5,30.27,SSE,159,5.0,8.1,37,0.00,,OVC004,0.00,VWS V14.01,2013-01-18 23:14:00,
2013-01-18 17:16:00,50.5,26.1,30.27,SW,215,7.2,11.3,38,0.00,,CLR,0.00,VWS V14.01,2013-01-18 23:16:00,
2013-01-18 17:18:00,50.5,26.1,30.27,SSW,195,4.4,11.3,38,0.00,,OVC004,0.00,VWS V14.01,2013-01-18 23:18:00,
2013-01-18 17:20:00,50.4,25.9,30.27,South,182,8.9,11.3,38,0.00,,OVC004,0.00,VWS V14.01,2013-01-18 23:20:00,
2013-01-18 17:21:00,50.4,25.9,30.27,SSW,213,9.4,10.5,38,0.00,,CLR,0.00,VWS V14.01,2013-01-18 23:21:00,
2013-01-18 17:22:00,50.4,25.9,30.27,South,170,5.0,10.5,38,0.00,,OVC004,0.00,VWS V14.01,2013-01-18 23:22:00,
2013-01-18 17:24:00,50.2,25.8,30.27,SSW,213,7.2,8.1,38,0.00,,OVC004,0.00,VWS V14.01,2013-01-18 23:24:00,
2013-01-18 17:26:00,50.0,25.6,30.27,SSE,156,6.1,8.1,38,0.00,,OVC004,0.00,VWS V14.01,2013-01-18 23:26:00,
2013-01-18 17:27:00,49.8,25.4,30.27,South,183,7.2,8.1,38,0.00,,CLR,0.00,VWS V14.01,2013-01-18 23:27:00,
2013-01-18 17:28:00,49.8,25.4,30.27,SW,224,6.7,8.1,38,0.00,,OVC004,0.00,VWS V14.01,2013-01-18 23:28:00,
2013-01-18 17:30:00,49.6,26.1,30.27,SSW,210,5.0,8.1,40,0.00,,OVC004,0.00,VWS V14.01,2013-01-18 23:30:00,
2013-01-18 17:32:00,49.5,25.9,30.27,SSW,206,6.7,7.0,40,0.00,,CLR,0.00,VWS V14.01,2013-01-18 23:32:00,
2013-01-18 17:34:00,49.3,25.8,30.27,SSW,196,5.0,8.1,40,0.00,,OVC004,0.00,VWS V14.01,2013-01-18 23:34:00,
2013-01-18 17:36:00,49.1,25.6,30.27,South,182,3.3,7.6,40,0.00,,OVC004,0.00,VWS V14.01,2013-01-18 23:36:00,
2013-01-18 17:37:00,49.1,25.6,30.27,SW,218,6.7,10.5,40,0.00,,CLR,0.00,VWS V14.01,2013-01-18 23:37:00,
2013-01-18 17:38:00,49.1,25.6,30.27,SE,141,5.5,10.5,40,0.00,,OVC004,0.00,VWS V14.01,2013-01-18 23:38:00,
2013-01-18 17:40:00,48.9,25.4,30.27,South,185,5.0,9.9,40,0.00,,OVC004,0.00,VWS V14.01,2013-01-18 23:40:00,
2013-01-18 17:42:00,48.7,25.3,30.27,SSW,206,9.4,11.3,40,0.00,,CLR,0.00,VWS V14.01,2013-01-18 23:42:00,
2013-01-18 17:44:00,48.7,26.1,30.27,SW,231,13.0,13.7,41,0.00,,OVC004,0.00,VWS V14.01,2013-01-18 23:44:00,
2013-01-18 17:46:00,48.7,26.1,30.27,SSE,158,5.0,13.7,41,0.00,,OVC004,0.00,VWS V14.01,2013-01-18 23:46:00,
2013-01-18 17:47:00,48.7,26.1,30.27,SSE,156,12.5,13.1,41,0.00,,CLR,0.00,VWS V14.01,2013-01-18 23:47:00,
2013-01-18 17:48:00,48.7,26.1,30.27,SSW,194,7.8,13.1,41,0.00,,OVC004,0.00,VWS V14.01,2013-01-18 23:48:00,
2013-01-18 17:50:00,48.6,25.9,30.27,SSW,208,6.7,10.8,41,0.00,,OVC004,0.00,VWS V14.01,2013-01-18 23:50:00,
2013-01-18 17:52:00,48.6,25.9,30.27,South,182,3.9,13.1,41,0.00,,CLR,0.00,VWS V14.01,2013-01-18 23:52:00,
2013-01-18 17:54:00,48.6,25.9,30.24,SSW,210,6.1,13.7,41,0.00,,OVC004,0.00,VWS V14.01,2013-01-18 23:54:00,
2013-01-18 17:56:00,48.4,25.7,30.24,South,176,7.2,13.1,41,0.00,,OVC004,0.00,VWS V14.01,2013-01-18 23:56:00,
2013-01-18 17:57:00,48.4,25.7,30.24,South,178,10.0,13.1,41,0.00,,CLR,0.00,VWS V14.01,2013-01-18 23:57:00,
2013-01-18 17:58:00,48.4,25.7,30.24,South,170,10.3,10.8,41,0.00,,OVC004,0.00,VWS V14.01,2013-01-18 23:58:00,
2013-01-18 18:00:00,48.4,25.7,30.24,SW,233,6.1,8.1,41,0.00,,CLR,0.00,VWS V14.01,2013-01-19 00:00:00,
2013-01-18 18:02:00,48.2,25.6,30.24,South,178,7.8,8.7,41,0.00,,CLR,0.00,VWS V14.01,2013-01-19 00:02:00,
2013-01-18 18:04:00,48.2,25.6,30.24,SSW,200,7.8,8.1,41,0.00,,CLR,0.00,VWS V14.01,2013-01-19 00:04:00,
2013-01-18 18:06:00,48.2,25.6,30.24,South,170,7.2,9.9,41,0.00,,CLR,0.00,VWS V14.01,2013-01-19 00:06:00,
2013-01-18 18:08:00,48.0,26.2,30.24,South,189,6.7,9.9,42,0.00,,CLR,0.00,VWS V14.01,2013-01-19 00:08:00,
2013-01-18 18:10:00,48.0,26.2,30.24,SSW,210,5.0,11.3,42,0.00,,CLR,0.00,VWS V14.01,2013-01-19 00:10:00,
2013-01-18 18:12:00,48.0,26.2,30.24,SSW,200,5.0,10.8,42,0.00,,CLR,0.00,VWS V14.01,2013-01-19 00:12:00,
2013-01-18 18:14:00,47.8,26.0,30.24,SSE,154,6.7,13.1,42,0.00,,CLR,0.00,VWS V14.01,2013-01-19 00:14:00,
2013-01-18 18:16:00,47.8,26.0,30.24,South,191,12.5,13.1,42,0.00,,CLR,0.00,VWS V14.01,2013-01-19 00:16:00,
2013-01-18 18:18:00,47.8,26.0,30.24,South,187,3.9,10.8,42,0.00,,CLR,0.00,VWS V14.01,2013-01-19 00:18:00,
2013-01-18 18:20:00,47.8,26.0,30.24,South,181,3.9,8.1,42,0.00,,CLR,0.00,VWS V14.01,2013-01-19 00:20:00,
2013-01-18 18:22:00,47.8,26.0,30.24,SSE,162,4.4,8.1,42,0.00,,CLR,0.00,VWS V14.01,2013-01-19 00:22:00,
2013-01-18 18:24:00,47.7,25.9,30.24,SSW,196,6.7,9.9,42,0.00,,CLR,0.00,VWS V14.01,2013-01-19 00:24:00,
2013-01-18 18:26:00,47.7,25.9,30.24,SSE,162,7.2,8.1,42,0.00,,CLR,0.00,VWS V14.01,2013-01-19 00:26:00,
2013-01-18 18:28:00,47.5,26.4,30.24,SSE,155,5.0,7.6,44,0.00,,CLR,0.00,VWS V14.01,2013-01-19 00:28:00,
2013-01-18 18:30:00,47.3,26.3,30.24,SSW,210,7.8,10.8,44,0.00,,CLR,0.00,VWS V14.01,2013-01-19 00:30:00,
2013-01-18 18:32:00,47.3,26.3,30.24,South,171,7.2,8.1,44,0.00,,OVC004,0.00,VWS V14.01,2013-01-19 00:32:00,
2013-01-18 18:34:00,47.1,26.1,30.24,SSW,193,6.7,10.8,44,0.00,,OVC004,0.00,VWS V14.01,2013-01-19 00:34:00,
2013-01-18 18:36:00,46.9,25.9,30.24,South,183,5.0,7.0,44,0.00,,OVC004,0.00,VWS V14.01,2013-01-19 00:36:00,
2013-01-18 18:38:00,46.9,25.9,30.24,South,185,6.7,10.8,44,0.00,,OVC004,0.00,VWS V14.01,2013-01-19 00:38:00,
2013-01-18 18:40:00,46.8,25.8,30.24,SSE,165,7.2,8.1,44,0.00,,OVC004,0.00,VWS V14.01,2013-01-19 00:40:00,
2013-01-18 18:41:00,46.8,25.8,30.24,SSE,165,7.2,8.1,44,0.00,,CLR,0.00,VWS V14.01,2013-01-19 00:41:00,
2013-01-18 18:42:00,46.8,25.8,30.24,South,171,8.3,9.9,44,0.00,,OVC004,0.00,VWS V14.01,2013-01-19 00:42:00,
2013-01-18 18:44:00,46.6,26.3,30.24,SSE,161,3.9,11.3,45,0.00,,OVC004,0.00,VWS V14.01,2013-01-19 00:44:00,
2013-01-18 18:46:00,46.6,26.3,30.24,SSW,194,7.8,8.1,45,0.00,,CLR,0.00,VWS V14.01,2013-01-19 00:46:00,
2013-01-18 18:48:00,46.4,26.2,30.24,SSW,193,4.4,8.1,45,0.00,,OVC004,0.00,VWS V14.01,2013-01-19 00:48:00,
2013-01-18 18:50:00,46.4,26.2,30.24,SSW,206,6.1,8.1,45,0.00,,OVC004,0.00,VWS V14.01,2013-01-19 00:50:00,
2013-01-18 18:51:00,46.2,26.0,30.24,SSW,193,6.7,8.1,45,0.00,,CLR,0.00,VWS V14.01,2013-01-19 00:51:00,
2013-01-18 18:52:00,46.2,26.0,30.24,SSW,197,4.4,8.1,45,0.00,,OVC004,0.00,VWS V14.01,2013-01-19 00:52:00,
2013-01-18 18:54:00,46.2,26.0,30.24,SSW,193,4.4,8.1,45,0.00,,OVC004,0.00,VWS V14.01,2013-01-19 00:54:00,
2013-01-18 18:56:00,46.0,25.8,30.24,SSW,200,2.8,7.0,45,0.00,,CLR,0.00,VWS V14.01,2013-01-19 00:56:00,
2013-01-18 18:58:00,45.9,25.7,30.24,South,177,3.3,4.1,45,0.00,,OVC004,0.00,VWS V14.01,2013-01-19 00:58:00,
2013-01-18 19:00:00,45.9,26.4,30.24,South,170,3.9,7.6,46,0.00,,OVC004,0.00,VWS V14.01,2013-01-19 01:00:00,
2013-01-18 19:01:00,45.7,26.2,30.24,South,170,6.1,7.6,46,0.00,,CLR,0.00,VWS V14.01,2013-01-19 01:01:00,
2013-01-18 19:02:00,45.7,26.2,30.24,SSW,198,6.1,7.6,46,0.00,,OVC004,0.00,VWS V14.01,2013-01-19 01:02:00,
2013-01-18 19:04:00,45.5,26.0,30.24,SSW,200,5.0,9.9,46,0.00,,OVC004,0.00,VWS V14.01,2013-01-19 01:04:00,
2013-01-18 19:06:00,45.3,25.9,30.24,South,184,3.9,8.1,46,0.00,,CLR,0.00,VWS V14.01,2013-01-19 01:06:00,
2013-01-18 19:08:00,45.3,25.9,30.24,SW,214,10.0,10.5,46,0.00,,CLR,0.00,VWS V14.01,2013-01-19 01:08:00,
2013-01-18 19:10:00,45.1,25.7,30.24,SW,221,5.0,10.5,46,0.00,,CLR,0.00,VWS V14.01,2013-01-19 01:10:00,
2013-01-18 19:12:00,45.1,26.4,30.24,South,179,6.7,7.0,48,0.00,,CLR,0.00,VWS V14.01,2013-01-19 01:12:00,
2013-01-18 19:14:00,45.1,27.1,30.24,South,174,6.7,8.1,49,0.00,,CLR,0.00,VWS V14.01,2013-01-19 01:14:00,
2013-01-18 19:16:00,45.3,27.2,30.24,South,187,7.8,8.1,49,0.00,,CLR,0.00,VWS V14.01,2013-01-19 01:16:00,
2013-01-18 19:18:00,45.3,27.2,30.24,South,183,3.3,10.8,49,0.00,,CLR,0.00,VWS V14.01,2013-01-19 01:18:00,
2013-01-18 19:20:00,45.3,27.2,30.24,SSW,194,4.4,7.0,49,0.00,,CLR,0.00,VWS V14.01,2013-01-19 01:20:00,
2013-01-18 19:22:00,45.3,27.2,30.24,South,172,7.8,8.7,49,0.00,,CLR,0.00,VWS V14.01,2013-01-19 01:22:00,
2013-01-18 19:24:00,45.3,27.2,30.24,SSE,150,7.2,9.9,49,0.00,,CLR,0.00,VWS V14.01,2013-01-19 01:24:00,
2013-01-18 19:26:00,45.3,27.2,30.24,South,188,7.2,10.5,49,0.00,,CLR,0.00,VWS V14.01,2013-01-19 01:26:00,
2013-01-18 19:28:00,45.3,27.2,30.24,South,187,5.0,7.6,49,0.00,,CLR,0.00,VWS V14.01,2013-01-19 01:28:00,
2013-01-18 19:30:00,45.3,27.2,30.24,SSW,201,7.2,8.1,49,0.00,,CLR,0.00,VWS V14.01,2013-01-19 01:30:00,
2013-01-18 19:32:00,45.3,27.2,30.24,SSE,160,6.7,9.9,49,0.00,,CLR,0.00,VWS V14.01,2013-01-19 01:32:00,
2013-01-18 19:34:00,45.3,27.2,30.24,SSW,194,4.4,7.6,49,0.00,,CLR,0.00,VWS V14.01,2013-01-19 01:34:00,
2013-01-18 19:36:00,45.3,27.2,30.24,South,175,4.4,8.1,49,0.00,,CLR,0.00,VWS V14.01,2013-01-19 01:36:00,
2013-01-18 19:38:00,45.3,27.2,30.24,SSW,203,3.9,7.6,49,0.00,,CLR,0.00,VWS V14.01,2013-01-19 01:38:00,
2013-01-18 19:40:00,45.1,27.7,30.24,South,184,6.1,8.1,50,0.00,,CLR,0.00,VWS V14.01,2013-01-19 01:40:00,
2013-01-18 19:42:00,45.1,27.7,30.24,WSW,237,6.7,7.0,50,0.00,,OVC004,0.00,VWS V14.01,2013-01-19 01:42:00,
2013-01-18 19:44:00,45.0,26.9,30.24,SW,214,6.1,8.1,49,0.00,,CLR,0.00,VWS V14.01,2013-01-19 01:44:00,
2013-01-18 19:46:00,44.8,26.7,30.24,SSE,159,3.9,7.0,49,0.00,,CLR,0.00,VWS V14.01,2013-01-19 01:46:00,
2013-01-18 19:48:00,44.8,27.4,30.24,SSW,207,7.8,8.1,50,0.00,,CLR,0.00,VWS V14.01,2013-01-19 01:48:00,
2013-01-18 19:50:00,44.6,27.2,30.24,SSE,163,7.8,8.1,50,0.00,,CLR,0.00,VWS V14.01,2013-01-19 01:50:00,
2013-01-18 19:52:00,44.4,27.0,30.24,SSW,207,6.7,8.1,50,0.00,,CLR,0.00,VWS V14.01,2013-01-19 01:52:00,
2013-01-18 19:54:00,44.4,27.0,30.24,SSW,207,6.7,8.1,50,0.00,,CLR,0.00,VWS V14.01,2013-01-19 01:54:00,
2013-01-18 19:56:00,44.2,26.9,30.24,SSW,195,7.8,8.1,50,0.00,,CLR,0.00,VWS V14.01,2013-01-19 01:56:00,
2013-01-18 19:58:00,44.2,26.9,30.24,WSW,238,4.4,8.1,50,0.00,,CLR,0.00,VWS V14.01,2013-01-19 01:58:00,
2013-01-18 20:00:00,44.1,26.7,30.24,SW,224,4.4,7.0,50,0.00,,CLR,0.00,VWS V14.01,2013-01-19 02:00:00,
2013-01-18 20:02:00,43.9,26.5,30.24,SSW,210,5.0,6.4,50,0.00,,CLR,0.00,VWS V14.01,2013-01-19 02:02:00,
2013-01-18 20:04:00,43.7,26.4,30.24,South,186,5.0,10.5,50,0.00,,CLR,0.00,VWS V14.01,2013-01-19 02:04:00,
2013-01-18 20:06:00,43.7,27.0,30.24,SSE,163,4.4,8.1,51,0.00,,CLR,0.00,VWS V14.01,2013-01-19 02:06:00,
2013-01-18 20:08:00,43.7,27.0,30.24,South,191,7.8,8.7,51,0.00,,CLR,0.00,VWS V14.01,2013-01-19 02:08:00,
2013-01-18 20:10:00,43.7,27.0,30.24,SSE,160,6.7,8.1,51,0.00,,CLR,0.00,VWS V14.01,2013-01-19 02:10:00,
2013-01-18 20:12:00,43.7,27.0,30.24,South,172,9.4,9.9,51,0.00,,CLR,0.00,VWS V14.01,2013-01-19 02:12:00,
2013-01-18 20:14:00,43.7,27.0,30.24,SSW,193,6.1,9.9,51,0.00,,CLR,0.00,VWS V14.01,2013-01-19 02:14:00,
2013-01-18 20:16:00,43.7,27.0,30.24,WSW,241,7.2,11.3,51,0.00,,CLR,0.00,VWS V14.01,2013-01-19 02:16:00,
2013-01-18 20:18:00,43.7,27.0,30.24,South,177,3.3,8.1,51,0.00,,CLR,0.00,VWS V14.01,2013-01-19 02:18:00,
2013-01-18 20:20:00,43.7,27.0,30.24,South,179,3.9,7.6,51,0.00,,CLR,0.00,VWS V14.01,2013-01-19 02:20:00,
2013-01-18 20:22:00,43.7,27.0,30.24,SSW,196,7.2,8.1,51,0.00,,CLR,0.00,VWS V14.01,2013-01-19 02:22:00,
2013-01-18 20:24:00,43.7,27.0,30.24,SSW,207,3.3,10.5,51,0.00,,CLR,0.00,VWS V14.01,2013-01-19 02:24:00,
2013-01-18 20:26:00,43.7,27.0,30.24,SW,236,7.8,10.5,51,0.00,,CLR,0.00,VWS V14.01,2013-01-19 02:26:00,
2013-01-18 20:28:00,43.7,27.0,30.24,SSW,202,10.8,11.3,51,0.00,,CLR,0.00,VWS V14.01,2013-01-19 02:28:00,
2013-01-18 20:30:00,43.7,27.0,30.24,SW,220,7.2,11.3,51,0.00,,CLR,0.00,VWS V14.01,2013-01-19 02:30:00,
2013-01-18 20:32:00,43.7,27.0,30.24,SW,224,7.8,13.7,51,0.00,,CLR,0.00,VWS V14.01,2013-01-19 02:32:00,
2013-01-18 20:34:00,43.9,27.8,30.24,South,179,10.0,14.2,53,0.00,,CLR,0.00,VWS V14.01,2013-01-19 02:34:00,
2013-01-18 20:36:00,44.1,27.3,30.24,SSW,208,6.7,10.8,51,0.00,,CLR,0.00,VWS V14.01,2013-01-19 02:36:00,
2013-01-18 20:38:00,44.1,27.3,30.24,SW,224,8.9,9.3,51,0.00,,CLR,0.00,VWS V14.01,2013-01-19 02:38:00,
2013-01-18 20:40:00,44.1,27.3,30.24,SSE,160,4.4,10.5,51,0.00,,CLR,0.00,VWS V14.01,2013-01-19 02:40:00,
2013-01-18 20:42:00,44.1,27.3,30.24,SSW,211,7.2,7.6,51,0.00,,CLR,0.00,VWS V14.01,2013-01-19 02:42:00,
2013-01-18 20:44:00,44.1,27.3,30.24,SSW,198,7.2,10.8,51,0.00,,CLR,0.00,VWS V14.01,2013-01-19 02:44:00,
2013-01-18 20:46:00,44.1,28.0,30.24,SSW,192,10.8,11.3,53,0.00,,CLR,0.00,VWS V14.01,2013-01-19 02:46:00,
2013-01-18 20:48:00,44.1,28.0,30.24,SW,217,6.1,11.3,53,0.00,,CLR,0.00,VWS V14.01,2013-01-19 02:48:00,
2013-01-18 20:50:00,44.1,28.0,30.24,SW,220,4.4,11.3,53,0.00,,CLR,0.00,VWS V14.01,2013-01-19 02:50:00,
2013-01-18 20:52:00,44.1,28.0,30.24,SW,221,7.2,10.5,53,0.00,,CLR,0.00,VWS V14.01,2013-01-19 02:52:00,
2013-01-18 20:54:00,44.2,28.1,30.21,South,177,6.1,10.8,53,0.00,,CLR,0.00,VWS V14.01,2013-01-19 02:54:00,
2013-01-18 20:56:00,44.1,28.0,30.21,South,191,10.8,11.3,53,0.00,,CLR,0.00,VWS V14.01,2013-01-19 02:56:00,
2013-01-18 20:58:00,44.1,28.0,30.21,SSE,159,6.7,8.1,53,0.00,,CLR,0.00,VWS V14.01,2013-01-19 02:58:00,
2013-01-18 21:00:00,44.1,28.0,30.21,SSE,149,3.9,10.5,53,0.00,,CLR,0.00,VWS V14.01,2013-01-19 03:00:00,
2013-01-18 21:02:00,43.9,27.8,30.21,SE,128,5.0,8.1,53,0.00,,CLR,0.00,VWS V14.01,2013-01-19 03:02:00,
2013-01-18 21:04:00,43.9,27.8,30.21,SW,222,4.4,10.8,53,0.00,,CLR,0.00,VWS V14.01,2013-01-19 03:04:00,
2013-01-18 21:06:00,43.7,27.6,30.21,SSW,207,7.2,7.6,53,0.00,,CLR,0.00,VWS V14.01,2013-01-19 03:06:00,
2013-01-18 21:08:00,43.7,27.6,30.21,SSW,203,6.7,9.9,53,0.00,,CLR,0.00,VWS V14.01,2013-01-19 03:08:00,
2013-01-18 21:10:00,43.5,27.5,30.21,South,169,6.1,10.5,53,0.00,,CLR,0.00,VWS V14.01,2013-01-19 03:10:00,
2013-01-18 21:12:00,43.5,27.5,30.21,South,178,7.2,11.3,53,0.00,,CLR,0.00,VWS V14.01,2013-01-19 03:12:00,
2013-01-18 21:14:00,43.5,27.5,30.21,SSW,211,5.0,10.5,53,0.00,,CLR,0.00,VWS V14.01,2013-01-19 03:14:00,
2013-01-18 21:16:00,43.5,27.5,30.21,SSE,167,2.8,10.5,53,0.00,,CLR,0.00,VWS V14.01,2013-01-19 03:16:00,
2013-01-18 21:18:00,43.5,27.5,30.21,South,169,10.0,13.1,53,0.00,,CLR,0.00,VWS V14.01,2013-01-19 03:18:00,
2013-01-18 21:20:00,43.5,27.5,30.21,SW,219,7.2,9.9,53,0.00,,CLR,0.00,VWS V14.01,2013-01-19 03:20:00,
2013-01-18 21:22:00,43.5,27.5,30.21,South,189,6.7,8.1,53,0.00,,CLR,0.00,VWS V14.01,2013-01-19 03:22:00,
2013-01-18 21:24:00,43.5,27.5,30.21,SSW,195,7.8,10.5,53,0.00,,CLR,0.00,VWS V14.01,2013-01-19 03:24:00,
2013-01-18 21:26:00,43.5,27.5,30.21,South,185,7.8,10.5,53,0.00,,CLR,0.00,VWS V14.01,2013-01-19 03:26:00,
2013-01-18 21:28:00,43.5,27.5,30.21,SSE,167,7.8,12.5,53,0.00,,CLR,0.00,VWS V14.01,2013-01-19 03:28:00,
2013-01-18 21:30:00,43.5,27.5,30.21,SSW,201,7.2,10.8,53,0.00,,CLR,0.00,VWS V14.01,2013-01-19 03:30:00,
2013-01-18 21:32:00,43.7,27.6,30.21,SSW,198,7.8,11.3,53,0.00,,CLR,0.00,VWS V14.01,2013-01-19 03:32:00,
2013-01-18 21:34:00,43.7,27.6,30.21,South,186,6.7,10.8,53,0.00,,CLR,0.00,VWS V14.01,2013-01-19 03:34:00,
2013-01-18 21:36:00,43.9,27.8,30.21,South,184,10.0,11.3,53,0.00,,CLR,0.00,VWS V14.01,2013-01-19 03:36:00,
2013-01-18 21:38:00,43.9,27.2,30.21,SSW,201,6.1,13.7,51,0.00,,CLR,0.00,VWS V14.01,2013-01-19 03:38:00,
2013-01-18 21:40:00,43.9,27.2,30.21,South,181,9.4,12.5,51,0.00,,CLR,0.00,VWS V14.01,2013-01-19 03:40:00,
2013-01-18 21:42:00,44.1,27.3,30.21,SW,221,7.2,10.5,51,0.00,,CLR,0.00,VWS V14.01,2013-01-19 03:42:00,
2013-01-18 21:44:00,44.1,27.3,30.21,SW,218,4.4,13.1,51,0.00,,CLR,0.00,VWS V14.01,2013-01-19 03:44:00,
2013-01-18 21:46:00,44.1,27.3,30.21,SSW,207,7.2,16.6,51,0.00,,CLR,0.00,VWS V14.01,2013-01-19 03:46:00,
2013-01-18 21:48:00,44.1,27.3,30.21,South,180,7.8,14.2,51,0.00,,CLR,0.00,VWS V14.01,2013-01-19 03:48:00,
2013-01-18 21:50:00,44.2,27.5,30.21,SSW,195,7.8,13.1,51,0.00,,CLR,0.00,VWS V14.01,2013-01-19 03:50:00,
2013-01-18 21:52:00,44.2,27.5,30.21,SW,218,10.0,13.7,51,0.00,,CLR,0.00,VWS V14.01,2013-01-19 03:52:00,
2013-01-18 21:54:00,44.2,27.5,30.21,SSW,197,4.4,13.1,51,0.00,,CLR,0.00,VWS V14.01,2013-01-19 03:54:00,
2013-01-18 21:56:00,44.2,26.9,30.21,South,173,10.3,16.6,50,0.00,,CLR,0.00,VWS V14.01,2013-01-19 03:56:00,
2013-01-18 21:58:00,44.4,27.0,30.21,South,176,7.2,14.8,50,0.00,,CLR,0.00,VWS V14.01,2013-01-19 03:58:00,
2013-01-18 22:00:00,44.6,27.2,30.21,SW,216,10.8,11.3,50,0.00,,CLR,0.00,VWS V14.01,2013-01-19 04:00:00,
2013-01-18 22:02:00,44.6,27.2,30.21,SSW,198,10.0,13.7,50,0.00,,CLR,0.00,VWS V14.01,2013-01-19 04:02:00,
2013-01-18 22:04:00,44.6,27.2,30.21,SW,222,10.3,13.7,50,0.00,,CLR,0.00,VWS V14.01,2013-01-19 04:04:00,
2013-01-18 22:06:00,44.6,27.2,30.21,SW,217,5.0,14.8,50,0.00,,OVC004,0.00,VWS V14.01,2013-01-19 04:06:00,
2013-01-18 22:08:00,44.6,27.2,30.21,SSW,206,6.7,11.3,50,0.00,,OVC004,0.00,VWS V14.01,2013-01-19 04:08:00,
2013-01-18 22:10:00,44.6,27.2,30.21,SSW,203,10.8,11.3,50,0.00,,OVC004,0.00,VWS V14.01,2013-01-19 04:10:00,
2013-01-18 22:12:00,44.4,27.0,30.21,South,173,8.3,11.3,50,0.00,,OVC004,0.00,VWS V14.01,2013-01-19 04:12:00,
2013-01-18 22:14:00,44.4,27.0,30.21,SSW,206,8.9,11.3,50,0.00,,OVC004,0.00,VWS V14.01,2013-01-19 04:14:00,
2013-01-18 22:15:00,44.4,27.0,30.21,SSW,206,8.9,11.3,50,0.00,,CLR,0.00,VWS V14.01,2013-01-19 04:15:00,
2013-01-18 22:16:00,44.2,26.9,30.21,South,184,7.8,9.3,50,0.00,,OVC004,0.00,VWS V14.01,2013-01-19 04:16:00,
2013-01-18 22:18:00,44.2,26.9,30.21,SSW,207,6.7,10.8,50,0.00,,OVC004,0.00,VWS V14.01,2013-01-19 04:18:00,
2013-01-18 22:20:00,44.2,26.9,30.21,SSW,210,6.7,9.9,50,0.00,,CLR,0.00,VWS V14.01,2013-01-19 04:20:00,
2013-01-18 22:22:00,44.2,26.9,30.21,South,183,7.2,11.3,50,0.00,,OVC004,0.00,VWS V14.01,2013-01-19 04:22:00,
2013-01-18 22:24:00,44.1,26.7,30.21,SSW,207,7.2,8.1,50,0.00,,OVC004,0.00,VWS V14.01,2013-01-19 04:24:00,
2013-01-18 22:25:00,44.1,26.7,30.21,SSW,195,6.1,8.1,50,0.00,,CLR,0.00,VWS V14.01,2013-01-19 04:25:00,
2013-01-18 22:26:00,44.1,26.7,30.21,SSW,206,4.4,8.1,50,0.00,,OVC004,0.00,VWS V14.01,2013-01-19 04:26:00,
2013-01-18 22:28:00,43.9,26.5,30.21,SW,218,11.9,12.5,50,0.00,,OVC004,0.00,VWS V14.01,2013-01-19 04:28:00,
2013-01-18 22:30:00,43.7,26.4,30.21,SSW,193,7.8,8.1,50,0.00,,CLR,0.00,VWS V14.01,2013-01-19 04:30:00,
2013-01-18 22:32:00,43.7,26.4,30.21,SSE,167,7.8,9.9,50,0.00,,OVC004,0.00,VWS V14.01,2013-01-19 04:32:00,
2013-01-18 22:34:00,43.7,26.4,30.21,South,169,5.0,10.8,50,0.00,,OVC004,0.00,VWS V14.01,2013-01-19 04:34:00,
2013-01-18 22:35:00,43.7,26.4,30.21,SW,230,7.2,8.1,50,0.00,,CLR,0.00,VWS V14.01,2013-01-19 04:35:00,
2013-01-18 22:36:00,43.7,26.4,30.21,South,191,7.2,8.1,50,0.00,,OVC004,0.00,VWS V14.01,2013-01-19 04:36:00,
2013-01-18 22:38:00,43.5,26.2,30.21,SW,226,4.4,9.9,50,0.00,,OVC004,0.00,VWS V14.01,2013-01-19 04:38:00,
2013-01-18 22:40:00,43.5,26.2,30.21,SSW,205,7.2,7.6,50,0.00,,CLR,0.00,VWS V14.01,2013-01-19 04:40:00,
2013-01-18 22:42:00,43.5,26.2,30.21,SSW,198,6.7,8.1,50,0.00,,OVC004,0.00,VWS V14.01,2013-01-19 04:42:00,
2013-01-18 22:44:00,43.5,26.2,30.21,SSW,207,7.8,8.1,50,0.00,,OVC004,0.00,VWS V14.01,2013-01-19 04:44:00,
2013-01-18 22:45:00,43.5,26.2,30.21,SSW,206,4.4,13.1,50,0.00,,CLR,0.00,VWS V14.01,2013-01-19 04:45:00,
2013-01-18 22:46:00,43.5,26.2,30.21,SSW,211,5.0,13.1,50,0.00,,OVC004,0.00,VWS V14.01,2013-01-19 04:46:00,
2013-01-18 22:48:00,43.5,26.2,30.21,SSW,204,6.1,10.8,50,0.00,,OVC004,0.00,VWS V14.01,2013-01-19 04:48:00,
2013-01-18 22:50:00,43.5,26.2,30.21,SW,214,7.2,10.8,50,0.00,,CLR,0.00,VWS V14.01,2013-01-19 04:50:00,
2013-01-18 22:52:00,43.5,26.2,30.21,SSW,205,6.7,8.1,50,0.00,,OVC004,0.00,VWS V14.01,2013-01-19 04:52:00,
2013-01-18 22:54:00,43.3,26.0,30.18,SSW,194,5.5,8.1,50,0.00,,OVC004,0.00,VWS V14.01,2013-01-19 04:54:00,
2013-01-18 22:55:00,43.3,26.0,30.18,SW,216,4.4,7.6,50,0.00,,CLR,0.00,VWS V14.01,2013-01-19 04:55:00,
2013-01-18 22:56:00,43.3,26.0,30.18,SSW,197,7.2,8.1,50,0.00,,OVC004,0.00,VWS V14.01,2013-01-19 04:56:00,
2013-01-18 22:58:00,43.3,26.0,30.18,SSW,211,7.2,9.9,50,0.00,,OVC004,0.00,VWS V14.01,2013-01-19 04:58:00,
2013-01-18 23:00:00,43.2,25.9,30.18,SW,215,6.7,8.1,50,0.00,,CLR,0.00,VWS V14.01,2013-01-19 05:00:00,
2013-01-18 23:01:00,43.2,25.9,30.18,SSW,196,6.1,8.1,50,0.00,,CLR,0.00,VWS V14.01,2013-01-19 05:01:00,
2013-01-18 23:02:00,43.2,25.9,30.18,SSW,206,5.0,8.1,50,0.00,,CLR,0.00,VWS V14.01,2013-01-19 05:02:00,
2013-01-18 23:04:00,43.2,25.9,30.18,SSW,211,6.7,8.1,50,0.00,,CLR,0.00,VWS V14.01,2013-01-19 05:04:00,
2013-01-18 23:06:00,43.0,25.7,30.18,SSW,196,7.8,10.5,50,0.00,,OVC004,0.00,VWS V14.01,2013-01-19 05:06:00,
2013-01-18 23:08:00,43.0,25.7,30.18,SSW,209,7.8,10.5,50,0.00,,OVC004,0.00,VWS V14.01,2013-01-19 05:08:00,
2013-01-18 23:09:00,43.0,25.7,30.21,SSW,201,6.7,10.5,50,0.00,,CLR,0.00,VWS V14.01,2013-01-19 05:09:00,
2013-01-18 23:10:00,43.0,25.7,30.21,SSE,167,4.4,8.1,50,0.00,,OVC004,0.00,VWS V14.01,2013-01-19 05:10:00,
2013-01-18 23:12:00,43.0,25.7,30.21,SSW,202,7.2,11.3,50,0.00,,OVC004,0.00,VWS V14.01,2013-01-19 05:12:00,
2013-01-18 23:14:00,43.0,25.7,30.21,SSW,201,11.9,13.7,50,0.00,,CLR,0.00,VWS V14.01,2013-01-19 05:14:00,
2013-01-18 23:16:00,43.0,25.7,30.21,SW,221,10.0,13.7,50,0.00,,OVC004,0.00,VWS V14.01,2013-01-19 05:16:00,
2013-01-18 23:18:00,43.0,25.7,30.21,SW,216,6.7,10.5,50,0.00,,OVC004,0.00,VWS V14.01,2013-01-19 05:18:00,
2013-01-18 23:19:00,43.0,25.7,30.21,SSW,206,7.8,10.5,50,0.00,,CLR,0.00,VWS V14.01,2013-01-19 05:19:00,
2013-01-18 23:20:00,42.8,25.5,30.21,SSE,164,4.4,10.5,50,0.00,,OVC004,0.00,VWS V14.01,2013-01-19 05:20:00,
2013-01-18 23:22:00,42.8,25.5,30.21,SSW,202,7.2,13.1,50,0.00,,OVC004,0.00,VWS V14.01,2013-01-19 05:22:00,
2013-01-18 23:24:00,42.8,25.5,30.21,SW,222,9.4,13.1,50,0.00,,CLR,0.00,VWS V14.01,2013-01-19 05:24:00,
2013-01-18 23:26:00,42.8,25.5,30.21,SSW,193,6.7,10.5,50,0.00,,OVC004,0.00,VWS V14.01,2013-01-19 05:26:00,
2013-01-18 23:28:00,42.8,25.5,30.21,SSW,203,9.4,9.9,50,0.00,,OVC004,0.00,VWS V14.01,2013-01-19 05:28:00,
2013-01-18 23:29:00,42.8,25.5,30.21,SSW,210,4.4,9.9,50,0.00,,CLR,0.00,VWS V14.01,2013-01-19 05:29:00,
2013-01-18 23:30:00,42.8,25.5,30.21,South,183,5.0,9.9,50,0.00,,OVC004,0.00,VWS V14.01,2013-01-19 05:30:00,
2013-01-18 23:32:00,42.8,25.5,30.21,SSW,200,7.2,8.1,50,0.00,,OVC004,0.00,VWS V14.01,2013-01-19 05:32:00,
2013-01-18 23:34:00,42.8,25.5,30.21,SW,217,7.2,10.5,50,0.00,,CLR,0.00,VWS V14.01,2013-01-19 05:34:00,
2013-01-18 23:36:00,42.8,25.5,30.21,SW,222,7.2,12.5,50,0.00,,OVC004,0.00,VWS V14.01,2013-01-19 05:36:00,
2013-01-18 23:38:00,42.8,25.5,30.21,SSW,210,10.0,10.5,50,0.00,,OVC004,0.00,VWS V14.01,2013-01-19 05:38:00,
2013-01-18 23:39:00,42.8,25.5,30.21,SSW,204,10.8,13.1,50,0.00,,CLR,0.00,VWS V14.01,2013-01-19 05:39:00,
2013-01-18 23:40:00,42.8,25.5,30.21,SW,220,10.0,13.1,50,0.00,,OVC004,0.00,VWS V14.01,2013-01-19 05:40:00,
2013-01-18 23:42:00,42.8,25.5,30.21,South,183,10.8,11.3,50,0.00,,OVC004,0.00,VWS V14.01,2013-01-19 05:42:00,
2013-01-18 23:44:00,42.8,25.5,30.21,SSW,211,7.2,11.3,50,0.00,,CLR,0.00,VWS V14.01,2013-01-19 05:44:00,
2013-01-18 23:46:00,42.8,25.5,30.21,South,190,5.0,10.8,50,0.00,,OVC004,0.00,VWS V14.01,2013-01-19 05:46:00,
2013-01-18 23:48:00,42.8,25.5,30.21,SW,224,6.7,11.3,50,0.00,,OVC004,0.00,VWS V14.01,2013-01-19 05:48:00,
2013-01-18 23:49:00,42.8,25.5,30.21,South,186,7.2,11.3,50,0.00,,CLR,0.00,VWS V14.01,2013-01-19 05:49:00,
2013-01-18 23:50:00,42.8,25.5,30.21,SW,214,6.1,10.8,50,0.00,,OVC004,0.00,VWS V14.01,2013-01-19 05:50:00,
2013-01-18 23:52:00,42.8,25.5,30.21,SW,223,7.8,9.9,50,0.00,,OVC004,0.00,VWS V14.01,2013-01-19 05:52:00,
2013-01-18 23:54:00,42.8,25.5,30.21,SSW,198,7.8,10.8,50,0.00,,CLR,0.00,VWS V14.01,2013-01-19 05:54:00,
2013-01-18 23:56:00,42.8,25.5,30.21,SW,218,10.3,10.8,50,0.00,,OVC004,0.00,VWS V14.01,2013-01-19 05:56:00,
2013-01-18 23:58:00,42.8,25.5,30.21,SW,223,7.2,10.8,50,0.00,,OVC004,0.00,VWS V14.01,2013-01-19 05:58:00,
2013-01-18 23:59:00,42.8,25.5,30.21,SSW,209,7.2,11.3,50,0.00,,CLR,0.00,VWS V14.01,2013-01-19 05:59:00,